CPA882 VHHH-KLAX

Flight info

Callsign CPA882
Flight time 13h 0m
Altitude 29000
Route DALOL V631 ENVAR M750 MIDAI/N0502F310 M750 MUKEP Y891 OVSUN/N0502F300 Y893 IGMIS/N0502F310 Y57 POROT OTR11 LEPKI DCT 39N160E/N0493F330 40N170E 41N180E 40N170W 38N160W/N0484F350 37N150W 37N140W DCT BOSKE DCT ALLBE DCT PIRAT DCT BURGL IRNMN2
Aircraft B77W/H-SDE1E2E3FGHIJ2J3J4J5M1RWXY/LB1D1

Departure

Time 2026-05-07 11:00
Airport Hong Kong International Airport (VHHH)

Arrival

Time 2026-05-08 00:00
Airport Los Angeles International Airport (KLAX)
Time Latitude Longitude Altitude Speed Heading
2026-05-07 10:00 22.31172 113.92773 42 ft 0 kts 298°
2026-05-07 10:43 22.31167 113.92783 42 ft 2 kts 298°
2026-05-07 10:43 22.31160 113.92798 42 ft 2 kts 298°
2026-05-07 10:44 22.31155 113.92807 42 ft 1 kts 298°
2026-05-07 10:44 22.31149 113.92821 41 ft 2 kts 285°
2026-05-07 10:44 22.31147 113.92838 42 ft 2 kts 269°
2026-05-07 10:44 22.31148 113.92853 42 ft 2 kts 255°
2026-05-07 10:45 22.31153 113.92868 41 ft 2 kts 241°
2026-05-07 10:45 22.31162 113.92881 41 ft 2 kts 227°
2026-05-07 10:45 22.31173 113.92892 42 ft 2 kts 213°
2026-05-07 10:45 22.31180 113.92896 42 ft 1 kts 205°
2026-05-07 10:46 22.31181 113.92897 42 ft 0 kts 205°
2026-05-07 10:48 22.31178 113.92895 41 ft 1 kts 205°
2026-05-07 10:49 22.31153 113.92883 41 ft 5 kts 205°
2026-05-07 10:49 22.31118 113.92865 41 ft 4 kts 205°
2026-05-07 10:49 22.31090 113.92850 41 ft 4 kts 206°
2026-05-07 10:49 22.31058 113.92832 41 ft 5 kts 207°
2026-05-07 10:50 22.31017 113.92810 42 ft 7 kts 206°
2026-05-07 10:50 22.30965 113.92783 41 ft 9 kts 205°
2026-05-07 10:50 22.30903 113.92751 41 ft 10 kts 206°
2026-05-07 10:50 22.30850 113.92715 41 ft 7 kts 223°
2026-05-07 10:51 22.30826 113.92670 42 ft 6 kts 251°
2026-05-07 10:51 22.30809 113.92617 41 ft 8 kts 251°
2026-05-07 10:51 22.30788 113.92553 41 ft 9 kts 251°
2026-05-07 10:51 22.30765 113.92480 41 ft 10 kts 251°
2026-05-07 10:52 22.30739 113.92400 41 ft 11 kts 251°
2026-05-07 10:52 22.30711 113.92312 41 ft 12 kts 251°
2026-05-07 10:52 22.30681 113.92218 41 ft 13 kts 251°
2026-05-07 10:52 22.30649 113.92119 41 ft 14 kts 251°
2026-05-07 10:53 22.30613 113.92010 41 ft 16 kts 250°
2026-05-07 10:53 22.30573 113.91885 41 ft 18 kts 251°
2026-05-07 10:53 22.30529 113.91747 41 ft 20 kts 251°
2026-05-07 10:53 22.30481 113.91600 41 ft 21 kts 251°
2026-05-07 10:54 22.30430 113.91442 41 ft 22 kts 251°
2026-05-07 10:54 22.30377 113.91277 41 ft 23 kts 251°
2026-05-07 10:54 22.30325 113.91115 41 ft 22 kts 251°
2026-05-07 10:54 22.30275 113.90960 41 ft 21 kts 251°
2026-05-07 10:55 22.30224 113.90803 41 ft 22 kts 251°
2026-05-07 10:55 22.30174 113.90648 41 ft 22 kts 251°
2026-05-07 10:55 22.30123 113.90488 41 ft 22 kts 251°
2026-05-07 10:55 22.30072 113.90330 41 ft 22 kts 251°
2026-05-07 10:56 22.30020 113.90170 41 ft 22 kts 250°
2026-05-07 10:56 22.29970 113.90015 41 ft 20 kts 251°
2026-05-07 10:56 22.29926 113.89879 41 ft 17 kts 251°
2026-05-07 10:56 22.29890 113.89770 41 ft 11 kts 245°
2026-05-07 10:57 22.29835 113.89732 41 ft 8 kts 175°
2026-05-07 10:57 22.29785 113.89747 41 ft 6 kts 161°
2026-05-07 10:57 22.29748 113.89761 41 ft 5 kts 160°
2026-05-07 10:57 22.29714 113.89774 41 ft 5 kts 160°
2026-05-07 10:58 22.29678 113.89789 41 ft 5 kts 159°
2026-05-07 10:58 22.29644 113.89809 41 ft 5 kts 131°
2026-05-07 10:58 22.29636 113.89844 41 ft 4 kts 85°
2026-05-07 10:58 22.29646 113.89883 41 ft 6 kts 71°
2026-05-07 10:59 22.29673 113.89967 41 ft 25 kts 71°
2026-05-07 10:59 22.29798 113.90356 42 ft 83 kts 71°
2026-05-07 10:59 22.30052 113.91139 42 ft 137 kts 71°
2026-05-07 10:59 22.30422 113.92287 42 ft 185 kts 71°
2026-05-07 11:00 22.30889 113.93721 195 ft 213 kts 71°
2026-05-07 11:00 22.31402 113.95262 694 ft 224 kts 72°
2026-05-07 11:00 22.31905 113.96844 1451 ft 223 kts 73°
2026-05-07 11:00 22.32402 113.98429 1946 ft 227 kts 73°
2026-05-07 11:01 22.32910 114.00042 2521 ft 225 kts 73°
2026-05-07 11:01 22.33408 114.01619 3076 ft 223 kts 72°
2026-05-07 11:01 22.33836 114.03221 3539 ft 223 kts 84°
2026-05-07 11:01 22.33762 114.04887 3937 ft 224 kts 107°
2026-05-07 11:02 22.33082 114.06420 4204 ft 232 kts 126°
2026-05-07 11:02 22.32019 114.07677 4761 ft 227 kts 143°
2026-05-07 11:02 22.30586 114.08469 5098 ft 231 kts 165°
2026-05-07 11:02 22.28949 114.08784 5287 ft 245 kts 179°
2026-05-07 11:03 22.27212 114.08722 5626 ft 253 kts 184°
2026-05-07 11:03 22.25378 114.08666 5841 ft 270 kts 180°
2026-05-07 11:03 22.23435 114.08674 6154 ft 282 kts 181°
2026-05-07 11:03 22.21429 114.08658 6456 ft 294 kts 182°
2026-05-07 11:04 22.19412 114.08627 7216 ft 287 kts 181°
2026-05-07 11:04 22.17454 114.08851 7836 ft 286 kts 162°
2026-05-07 11:04 22.15667 114.09857 8253 ft 293 kts 139°
2026-05-07 11:04 22.14399 114.11547 8707 ft 296 kts 116°
2026-05-07 11:05 22.13545 114.13593 9194 ft 299 kts 114°
2026-05-07 11:05 22.12694 114.15627 9631 ft 303 kts 116°
2026-05-07 11:05 22.11765 114.17678 10148 ft 304 kts 117°
2026-05-07 11:05 22.10800 114.19736 10506 ft 312 kts 118°
2026-05-07 11:06 22.09809 114.21823 10950 ft 316 kts 118°
2026-05-07 11:06 22.08784 114.23916 11434 ft 318 kts 122°
2026-05-07 11:06 22.07493 114.25887 11891 ft 320 kts 132°
2026-05-07 11:06 22.05948 114.27583 12326 ft 321 kts 141°
2026-05-07 11:07 22.04163 114.29054 12791 ft 322 kts 146°
2026-05-07 11:07 22.02407 114.30572 13209 ft 326 kts 131°
2026-05-07 11:07 22.01121 114.32599 13608 ft 330 kts 120°
2026-05-07 11:07 21.99991 114.34769 14075 ft 332 kts 120°
2026-05-07 11:08 21.98879 114.36937 14451 ft 338 kts 120°
2026-05-07 11:08 21.97715 114.39208 14572 ft 353 kts 119°
2026-05-07 11:08 21.96497 114.41582 14661 ft 369 kts 119°
2026-05-07 11:08 21.95230 114.44052 14788 ft 384 kts 119°
2026-05-07 11:09 21.93915 114.46615 14919 ft 399 kts 119°
2026-05-07 11:09 21.92552 114.49268 15049 ft 413 kts 119°
2026-05-07 11:09 21.91143 114.52012 15158 ft 428 kts 119°
2026-05-07 11:09 21.89667 114.54882 15382 ft 438 kts 119°
2026-05-07 11:10 21.88191 114.57755 15824 ft 442 kts 119°
2026-05-07 11:10 21.86701 114.60651 16350 ft 443 kts 120°
2026-05-07 11:10 21.85202 114.63565 16830 ft 445 kts 120°
2026-05-07 11:10 21.83695 114.66492 17198 ft 450 kts 120°
2026-05-07 11:11 21.82177 114.69438 17567 ft 455 kts 120°
2026-05-07 11:11 21.80629 114.72440 17976 ft 458 kts 120°
2026-05-07 11:11 21.79097 114.75412 18334 ft 462 kts 120°
2026-05-07 11:11 21.77516 114.78476 18738 ft 465 kts 120°
2026-05-07 11:12 21.76038 114.81564 19145 ft 468 kts 113°
2026-05-07 11:12 21.74989 114.84882 19540 ft 471 kts 104°
2026-05-07 11:12 21.74446 114.88325 19892 ft 474 kts 95°
2026-05-07 11:12 21.74342 114.91877 20235 ft 477 kts 90°
2026-05-07 11:13 21.74342 114.95471 20587 ft 481 kts 89°
2026-05-07 11:13 21.74346 114.99030 20952 ft 483 kts 89°
2026-05-07 11:13 21.74349 115.02644 21305 ft 486 kts 89°
2026-05-07 11:13 21.74350 115.06306 21643 ft 489 kts 89°
2026-05-07 11:14 21.74350 115.09975 21973 ft 492 kts 89°
2026-05-07 11:14 21.74348 115.13637 22275 ft 495 kts 89°
2026-05-07 11:14 21.74344 115.17318 22594 ft 498 kts 89°
2026-05-07 11:14 21.74340 115.21056 22904 ft 501 kts 89°
2026-05-07 11:15 21.74334 115.24822 23221 ft 503 kts 89°
2026-05-07 11:15 21.74328 115.28587 23520 ft 506 kts 89°
2026-05-07 11:15 21.74320 115.32371 23859 ft 508 kts 89°
2026-05-07 11:15 21.74311 115.36128 24195 ft 510 kts 89°
2026-05-07 11:16 21.74301 115.39961 24513 ft 512 kts 89°
2026-05-07 11:16 21.74291 115.43806 24820 ft 515 kts 89°
2026-05-07 11:16 21.74279 115.47636 24895 ft 519 kts 89°
2026-05-07 11:16 21.74267 115.51549 25002 ft 524 kts 89°
2026-05-07 11:17 21.74253 115.55433 25432 ft 523 kts 89°
2026-05-07 11:17 21.74239 115.59309 25929 ft 521 kts 89°
2026-05-07 11:17 21.74225 115.63194 26231 ft 523 kts 89°
2026-05-07 11:17 21.74210 115.67135 26469 ft 527 kts 89°
2026-05-07 11:18 21.74194 115.71074 26802 ft 528 kts 89°
2026-05-07 11:18 21.74177 115.75024 26892 ft 530 kts 89°
2026-05-07 11:18 21.74160 115.78945 26899 ft 526 kts 89°
2026-05-07 11:18 21.74141 115.82852 26903 ft 524 kts 89°
2026-05-07 11:19 21.74122 115.86779 26903 ft 525 kts 89°
2026-05-07 11:19 21.74101 115.90710 26901 ft 526 kts 89°
2026-05-07 11:19 21.74080 115.94595 26901 ft 524 kts 89°
2026-05-07 11:19 21.74058 115.98516 26905 ft 525 kts 89°
2026-05-07 11:20 21.74035 116.02464 26904 ft 526 kts 89°
2026-05-07 11:20 21.74010 116.06368 26904 ft 526 kts 89°
2026-05-07 11:20 21.73986 116.10271 26907 ft 526 kts 89°
2026-05-07 11:20 21.73959 116.14230 26911 ft 525 kts 89°
2026-05-07 11:21 21.73933 116.18104 26913 ft 525 kts 89°
2026-05-07 11:21 21.73905 116.22069 26919 ft 526 kts 89°
2026-05-07 11:21 21.73876 116.25957 26919 ft 526 kts 89°
2026-05-07 11:21 21.73847 116.29890 26919 ft 526 kts 89°
2026-05-07 11:22 21.73816 116.33801 26913 ft 525 kts 89°
2026-05-07 11:22 21.73784 116.37745 26915 ft 525 kts 89°
2026-05-07 11:22 21.73752 116.41669 26910 ft 526 kts 89°
2026-05-07 11:22 21.73719 116.45556 26911 ft 524 kts 89°
2026-05-07 11:23 21.73685 116.49474 26916 ft 525 kts 89°
2026-05-07 11:23 21.73650 116.53368 26918 ft 525 kts 89°
2026-05-07 11:23 21.73614 116.57288 26918 ft 525 kts 89°
2026-05-07 11:23 21.73576 116.61243 26922 ft 526 kts 89°
2026-05-07 11:24 21.73539 116.65137 26922 ft 527 kts 90°
2026-05-07 11:24 21.73499 116.69099 26916 ft 526 kts 89°
2026-05-07 11:24 21.73461 116.73010 26917 ft 527 kts 89°
2026-05-07 11:24 21.73674 116.76952 26917 ft 526 kts 81°
2026-05-07 11:25 21.74378 116.80759 26913 ft 523 kts 73°
2026-05-07 11:25 21.75532 116.84435 26914 ft 521 kts 67°
2026-05-07 11:25 21.76847 116.88075 26909 ft 522 kts 67°
2026-05-07 11:25 21.78172 116.91715 26908 ft 522 kts 67°
2026-05-07 11:26 21.79499 116.95367 26908 ft 521 kts 67°
2026-05-07 11:26 21.80813 116.98985 26913 ft 521 kts 67°
2026-05-07 11:26 21.82126 117.02610 26907 ft 520 kts 67°
2026-05-07 11:26 21.83422 117.06192 26910 ft 521 kts 67°
2026-05-07 11:27 21.84743 117.09849 26911 ft 521 kts 67°
2026-05-07 11:27 21.86058 117.13492 26911 ft 521 kts 67°
2026-05-07 11:27 21.87355 117.17091 26910 ft 521 kts 67°
2026-05-07 11:27 21.88670 117.20740 26911 ft 522 kts 67°
2026-05-07 11:28 21.89981 117.24385 26912 ft 522 kts 67°
2026-05-07 11:28 21.91280 117.27998 26913 ft 522 kts 67°
2026-05-07 11:28 21.92595 117.31658 26913 ft 523 kts 67°
2026-05-07 11:28 21.93909 117.35321 26913 ft 524 kts 67°
2026-05-07 11:29 21.95213 117.38958 26912 ft 522 kts 67°
2026-05-07 11:29 21.96512 117.42582 26914 ft 522 kts 67°
2026-05-07 11:29 21.97808 117.46204 26911 ft 522 kts 67°
2026-05-07 11:29 21.99211 117.49827 26911 ft 522 kts 62°
2026-05-07 11:30 22.00984 117.53231 26916 ft 520 kts 57°
2026-05-07 11:30 22.02872 117.56561 26915 ft 519 kts 56°
2026-05-07 11:30 22.04743 117.59845 26911 ft 520 kts 56°
2026-05-07 11:30 22.06639 117.63175 26912 ft 520 kts 56°
2026-05-07 11:31 22.08539 117.66518 26912 ft 522 kts 57°
2026-05-07 11:31 22.10452 117.69886 27053 ft 528 kts 57°
2026-05-07 11:31 22.12383 117.73290 27547 ft 525 kts 57°
2026-05-07 11:31 22.14259 117.76600 28201 ft 519 kts 56°
2026-05-07 11:32 22.17976 117.83168 29248 ft 513 kts 56°
2026-05-07 11:32 22.19831 117.86448 29636 ft 513 kts 56°
2026-05-07 11:32 22.21705 117.89765 30007 ft 513 kts 56°
2026-05-07 11:33 22.23534 117.93003 30433 ft 511 kts 56°
2026-05-07 11:33 22.25395 117.96301 30857 ft 509 kts 56°
2026-05-07 11:33 22.27226 117.99548 30901 ft 510 kts 56°
2026-05-07 11:34 22.30960 118.06009 30909 ft 506 kts 55°
2026-05-07 11:34 22.34711 118.12421 30914 ft 507 kts 55°
2026-05-07 11:35 22.38476 118.18874 30912 ft 507 kts 55°
2026-05-07 11:35 22.42193 118.25317 30913 ft 509 kts 56°
2026-05-07 11:36 22.45865 118.31808 30911 ft 507 kts 56°
2026-05-07 11:36 22.49561 118.38343 30912 ft 508 kts 56°
2026-05-07 11:37 22.53215 118.44810 30914 ft 507 kts 56°
2026-05-07 11:37 22.56886 118.51314 30912 ft 508 kts 56°
2026-05-07 11:38 22.60589 118.57819 30914 ft 508 kts 56°
2026-05-07 11:38 22.64313 118.64355 30916 ft 509 kts 56°
2026-05-07 11:39 22.68016 118.70865 30917 ft 508 kts 56°
2026-05-07 11:39 22.71697 118.77343 30925 ft 508 kts 56°
2026-05-07 11:40 22.75404 118.83876 30927 ft 508 kts 56°
2026-05-07 11:40 22.79088 118.90377 30929 ft 509 kts 56°
2026-05-07 11:41 22.82789 118.96918 30929 ft 508 kts 56°
2026-05-07 11:41 22.86467 119.03426 30931 ft 508 kts 56°
2026-05-07 11:42 22.90153 119.09956 30929 ft 509 kts 56°
2026-05-07 11:42 22.93839 119.16494 30930 ft 509 kts 56°
2026-05-07 11:43 22.97538 119.23062 30931 ft 510 kts 56°
2026-05-07 11:43 23.01221 119.29613 30931 ft 510 kts 56°
2026-05-07 11:44 23.04909 119.36180 30931 ft 511 kts 56°
2026-05-07 11:44 23.08605 119.42770 30932 ft 511 kts 56°
2026-05-07 11:45 23.12288 119.49345 30936 ft 511 kts 56°
2026-05-07 11:45 23.15979 119.55943 30935 ft 511 kts 56°
2026-05-07 11:46 23.19675 119.62557 30938 ft 511 kts 56°
2026-05-07 11:46 23.23365 119.69164 30930 ft 512 kts 56°
2026-05-07 11:47 23.27047 119.75764 30932 ft 512 kts 56°
2026-05-07 11:47 23.30727 119.82369 30929 ft 513 kts 56°
2026-05-07 11:48 23.34424 119.89015 30928 ft 512 kts 56°
2026-05-07 11:48 23.38833 119.95032 30932 ft 509 kts 41°
2026-05-07 11:49 23.43950 120.00323 30931 ft 507 kts 40°
2026-05-07 11:49 23.49075 120.05592 30931 ft 507 kts 40°
2026-05-07 11:50 23.54200 120.10872 30936 ft 508 kts 40°
2026-05-07 11:50 23.59292 120.16125 30951 ft 505 kts 40°
2026-05-07 11:51 23.64403 120.21405 30944 ft 508 kts 40°
2026-05-07 11:51 23.69547 120.26726 30949 ft 507 kts 40°
2026-05-07 11:52 23.74652 120.32012 30950 ft 507 kts 40°
2026-05-07 11:52 23.79785 120.37335 30960 ft 509 kts 40°
2026-05-07 11:53 23.84883 120.42626 30956 ft 508 kts 40°
2026-05-07 11:53 23.90007 120.47951 30960 ft 509 kts 40°
2026-05-07 11:54 23.95121 120.53317 30970 ft 508 kts 41°
2026-05-07 11:54 24.00214 120.58694 30979 ft 508 kts 41°
2026-05-07 11:55 24.05269 120.64033 30991 ft 508 kts 40°
2026-05-07 11:55 24.10389 120.69447 30988 ft 510 kts 41°
2026-05-07 11:56 24.15467 120.74822 30994 ft 509 kts 41°
2026-05-07 11:56 24.20586 120.80246 31026 ft 511 kts 41°
2026-05-07 11:57 24.25661 120.85630 31071 ft 509 kts 41°
2026-05-07 11:57 24.30766 120.91052 31113 ft 509 kts 41°
2026-05-07 11:58 24.35851 120.96459 31147 ft 511 kts 41°
2026-05-07 11:58 24.40949 121.01917 31175 ft 511 kts 44°
2026-05-07 11:59 24.45473 121.07918 31193 ft 514 kts 49°
2026-05-07 11:59 24.49917 121.14051 31209 ft 514 kts 49°
2026-05-07 12:00 24.54358 121.20184 31207 ft 514 kts 49°
2026-05-07 12:00 24.58834 121.26369 31196 ft 514 kts 49°
2026-05-07 12:01 24.63275 121.32515 31136 ft 515 kts 49°
2026-05-07 12:01 24.67743 121.38703 31090 ft 517 kts 49°
2026-05-07 12:02 24.72186 121.44865 31055 ft 515 kts 49°
2026-05-07 12:02 24.76653 121.51068 31025 ft 518 kts 49°
2026-05-07 12:03 24.81119 121.57276 31008 ft 519 kts 49°
2026-05-07 12:03 24.85612 121.63532 30997 ft 520 kts 49°
2026-05-07 12:04 24.90077 121.69756 30976 ft 522 kts 49°
2026-05-07 12:04 24.94786 121.75802 30979 ft 520 kts 46°
2026-05-07 12:05 24.99523 121.81788 30979 ft 520 kts 46°
2026-05-07 12:05 25.04276 121.87822 30970 ft 520 kts 46°
2026-05-07 12:06 25.09042 121.93891 30962 ft 523 kts 46°
2026-05-07 12:06 25.13754 121.99909 30951 ft 520 kts 46°
2026-05-07 12:07 25.18470 122.06012 30942 ft 521 kts 47°
2026-05-07 12:07 25.23148 122.12084 30933 ft 519 kts 47°
2026-05-07 12:08 25.27799 122.18126 30934 ft 520 kts 47°
2026-05-07 12:08 25.32463 122.24194 30937 ft 518 kts 47°
2026-05-07 12:09 25.37130 122.30272 30938 ft 521 kts 47°
2026-05-07 12:09 25.41796 122.36357 30940 ft 518 kts 46°
2026-05-07 12:10 25.46468 122.42458 30946 ft 521 kts 47°
2026-05-07 12:10 25.51153 122.48583 30944 ft 521 kts 46°
2026-05-07 12:11 25.55821 122.54649 30946 ft 519 kts 46°
2026-05-07 12:11 25.60538 122.60779 30951 ft 523 kts 46°
2026-05-07 12:12 25.65214 122.66866 30946 ft 520 kts 46°
2026-05-07 12:12 25.69875 122.72942 30948 ft 518 kts 46°
2026-05-07 12:13 25.74558 122.79054 30948 ft 520 kts 47°
2026-05-07 12:13 25.79229 122.85161 30950 ft 520 kts 47°
2026-05-07 12:14 25.83904 122.91280 30951 ft 522 kts 47°
2026-05-07 12:14 25.88573 122.97400 30950 ft 520 kts 47°
2026-05-07 12:15 25.93240 123.03527 30951 ft 519 kts 46°
2026-05-07 12:15 25.97899 123.09656 30952 ft 520 kts 47°
2026-05-07 12:16 26.02585 123.15826 30953 ft 521 kts 46°
2026-05-07 12:16 26.07239 123.21964 30952 ft 521 kts 46°
2026-05-07 12:17 26.11903 123.28123 30955 ft 523 kts 46°
2026-05-07 12:17 26.16593 123.34327 30954 ft 520 kts 46°
2026-05-07 12:18 26.21233 123.40470 30956 ft 522 kts 46°
2026-05-07 12:18 26.25892 123.46650 30956 ft 519 kts 46°
2026-05-07 12:19 26.30522 123.52796 30959 ft 522 kts 46°
2026-05-07 12:19 26.35187 123.59000 30960 ft 519 kts 46°
2026-05-07 12:20 26.39822 123.65171 30962 ft 522 kts 47°
2026-05-07 12:20 26.44475 123.71375 30955 ft 523 kts 47°
2026-05-07 12:21 26.49118 123.77574 30957 ft 524 kts 47°
2026-05-07 12:21 26.53791 123.83822 30952 ft 521 kts 46°
2026-05-07 12:22 26.58440 123.90047 30947 ft 522 kts 47°
2026-05-07 12:22 26.63051 123.96229 30943 ft 522 kts 46°
2026-05-07 12:23 26.67724 124.02496 30948 ft 523 kts 47°
2026-05-07 12:23 26.72352 124.08686 30951 ft 522 kts 46°
2026-05-07 12:24 26.77009 124.14922 30953 ft 524 kts 46°
2026-05-07 12:24 26.81677 124.21182 30955 ft 524 kts 47°
2026-05-07 12:25 26.86342 124.27450 30952 ft 524 kts 47°
2026-05-07 12:25 26.90968 124.33673 30955 ft 523 kts 46°
2026-05-07 12:26 26.95639 124.39964 30955 ft 524 kts 46°
2026-05-07 12:26 27.00275 124.46217 30956 ft 523 kts 46°
2026-05-07 12:27 27.04925 124.52495 30960 ft 525 kts 46°
2026-05-07 12:27 27.09582 124.58791 30956 ft 522 kts 46°
2026-05-07 12:28 27.14241 124.65095 30962 ft 526 kts 47°
2026-05-07 12:28 27.18888 124.71397 30949 ft 523 kts 47°
2026-05-07 12:29 27.23499 124.77657 30954 ft 524 kts 47°
2026-05-07 12:29 27.28117 124.83937 30954 ft 523 kts 47°
2026-05-07 12:30 27.32780 124.90285 30959 ft 525 kts 47°
2026-05-07 12:30 27.37389 124.96571 30960 ft 523 kts 47°
2026-05-07 12:31 27.42015 125.02862 30962 ft 525 kts 46°
2026-05-07 12:31 27.46692 125.09163 30965 ft 524 kts 46°
2026-05-07 12:32 27.51352 125.15453 30966 ft 524 kts 46°
2026-05-07 12:32 27.56024 125.21769 30967 ft 525 kts 46°
2026-05-07 12:33 27.63005 125.31227 30975 ft 524 kts 46°
2026-05-07 12:33 27.67651 125.37534 30976 ft 524 kts 46°
2026-05-07 12:34 27.72329 125.43892 30977 ft 527 kts 46°
2026-05-07 12:34 27.76970 125.50211 30977 ft 526 kts 46°
2026-05-07 12:35 27.81622 125.56555 30979 ft 525 kts 47°
2026-05-07 12:35 27.86294 125.62934 30981 ft 527 kts 46°
2026-05-07 12:36 27.90957 125.69312 30969 ft 525 kts 47°
2026-05-07 12:36 27.95593 125.75661 30969 ft 529 kts 47°
2026-05-07 12:37 28.00275 125.82084 30968 ft 526 kts 47°
2026-05-07 12:37 28.04928 125.88476 30971 ft 530 kts 47°
2026-05-07 12:38 28.09590 125.94890 30970 ft 527 kts 47°
2026-05-07 12:38 28.14246 126.01305 30975 ft 528 kts 47°
2026-05-07 12:39 28.18886 126.07709 30976 ft 527 kts 47°
2026-05-07 12:39 28.23510 126.14101 30974 ft 525 kts 47°
2026-05-07 12:40 28.28154 126.20528 30976 ft 527 kts 47°
2026-05-07 12:40 28.32769 126.26925 30979 ft 529 kts 47°
2026-05-07 12:41 28.37446 126.33420 30979 ft 527 kts 47°
2026-05-07 12:41 28.42076 126.39858 30981 ft 528 kts 47°
2026-05-07 12:42 28.46702 126.46300 30983 ft 529 kts 47°
2026-05-07 12:42 28.51340 126.52769 30981 ft 528 kts 47°
2026-05-07 12:43 28.55952 126.59213 30988 ft 527 kts 47°
2026-05-07 12:43 28.60595 126.65707 30987 ft 531 kts 47°
2026-05-07 12:44 28.65236 126.72212 30979 ft 527 kts 47°
2026-05-07 12:44 28.69866 126.78708 30984 ft 530 kts 47°
2026-05-07 12:45 28.74488 126.85206 30991 ft 527 kts 48°
2026-05-07 12:45 28.79094 126.91689 30991 ft 530 kts 48°
2026-05-07 12:46 28.83717 126.98209 30991 ft 528 kts 47°
2026-05-07 12:46 28.88324 127.04716 30996 ft 530 kts 47°
2026-05-07 12:47 28.92942 127.11247 30994 ft 529 kts 48°
2026-05-07 12:47 28.97566 127.17798 30996 ft 530 kts 47°
2026-05-07 12:48 29.02167 127.24326 30996 ft 530 kts 47°
2026-05-07 12:48 29.06799 127.30907 30998 ft 532 kts 47°
2026-05-07 12:49 29.11385 127.37437 30995 ft 527 kts 48°
2026-05-07 12:49 29.15998 127.44012 31001 ft 533 kts 48°
2026-05-07 12:50 29.20619 127.50612 31002 ft 530 kts 48°
2026-05-07 12:50 29.25208 127.57175 30993 ft 529 kts 48°
2026-05-07 12:51 29.29801 127.63753 31005 ft 532 kts 48°
2026-05-07 12:51 29.34418 127.70380 30994 ft 531 kts 48°
2026-05-07 12:52 29.38983 127.76939 30990 ft 531 kts 49°
2026-05-07 12:52 29.43612 127.83602 30994 ft 531 kts 49°
2026-05-07 12:53 29.48182 127.90192 30997 ft 531 kts 48°
2026-05-07 12:53 29.52787 127.96842 30992 ft 529 kts 49°
2026-05-07 12:54 29.57366 128.03458 30993 ft 533 kts 49°
2026-05-07 12:54 29.61953 128.10098 30991 ft 531 kts 48°
2026-05-07 12:55 29.66520 128.16717 30993 ft 531 kts 48°
2026-05-07 12:55 29.71108 128.23378 30991 ft 530 kts 49°
2026-05-07 12:56 29.75663 128.30003 30996 ft 533 kts 49°
2026-05-07 12:56 29.80259 128.36697 30994 ft 529 kts 48°
2026-05-07 12:57 29.84825 128.43359 30992 ft 532 kts 48°
2026-05-07 12:57 29.89377 128.50012 30991 ft 529 kts 48°
2026-05-07 12:58 29.93910 128.56648 30992 ft 533 kts 48°
2026-05-07 12:58 29.98469 128.63335 30992 ft 529 kts 49°
2026-05-07 12:59 30.03026 128.70027 30983 ft 531 kts 49°
2026-05-07 12:59 30.07563 128.76703 30981 ft 530 kts 49°
2026-05-07 13:00 30.12115 128.83409 30973 ft 530 kts 49°
2026-05-07 13:00 30.16666 128.90129 30971 ft 529 kts 49°
2026-05-07 13:01 30.21168 128.96785 30972 ft 530 kts 49°
2026-05-07 13:01 30.25724 129.03532 30974 ft 531 kts 49°
2026-05-07 13:02 30.30239 129.10231 30975 ft 530 kts 49°
2026-05-07 13:02 30.34758 129.16948 30978 ft 530 kts 49°
2026-05-07 13:03 30.39290 129.23694 30977 ft 531 kts 49°
2026-05-07 13:03 30.43804 129.30425 30977 ft 532 kts 50°
2026-05-07 13:04 30.48347 129.37212 30976 ft 531 kts 49°
2026-05-07 13:04 30.52850 129.43950 30975 ft 529 kts 49°
2026-05-07 13:05 30.57356 129.50703 30982 ft 533 kts 49°
2026-05-07 13:05 30.61868 129.57478 30979 ft 531 kts 49°
2026-05-07 13:06 30.66399 129.64291 30983 ft 532 kts 49°
2026-05-07 13:06 30.70903 129.71077 30971 ft 533 kts 50°
2026-05-07 13:07 30.75382 129.77837 30972 ft 531 kts 50°
2026-05-07 13:07 30.79911 129.84682 30970 ft 533 kts 50°
2026-05-07 13:08 30.84360 129.91495 30965 ft 534 kts 53°
2026-05-07 13:08 30.88356 129.98856 30972 ft 536 kts 56°
2026-05-07 13:09 30.92265 130.06220 30974 ft 537 kts 56°
2026-05-07 13:09 30.96181 130.13603 30972 ft 536 kts 56°
2026-05-07 13:10 31.00090 130.20987 30975 ft 537 kts 56°
2026-05-07 13:10 31.03969 130.28325 30975 ft 535 kts 56°
2026-05-07 13:11 31.07893 130.35761 30977 ft 537 kts 56°
2026-05-07 13:11 31.11769 130.43121 30978 ft 536 kts 56°
2026-05-07 13:12 31.15656 130.50516 30980 ft 535 kts 56°
2026-05-07 13:12 31.19536 130.57910 30978 ft 535 kts 56°
2026-05-07 13:13 31.23420 130.65326 30973 ft 536 kts 56°
2026-05-07 13:13 31.27278 130.72707 30958 ft 535 kts 56°
2026-05-07 13:14 31.31149 130.80127 30963 ft 535 kts 56°
2026-05-07 13:14 31.35021 130.87563 30972 ft 536 kts 56°
2026-05-07 13:15 31.38887 130.95001 30976 ft 536 kts 56°
2026-05-07 13:15 31.42724 131.02399 30974 ft 535 kts 56°
2026-05-07 13:16 31.46570 131.09827 30967 ft 534 kts 56°
2026-05-07 13:16 31.50405 131.17250 30965 ft 535 kts 56°
2026-05-07 13:17 31.54259 131.24724 30965 ft 535 kts 56°
2026-05-07 13:17 31.58092 131.32169 30969 ft 534 kts 56°
2026-05-07 13:18 31.61908 131.39600 30963 ft 534 kts 56°
2026-05-07 13:18 31.65730 131.47061 30955 ft 534 kts 56°
2026-05-07 13:19 31.69540 131.54513 30944 ft 532 kts 56°
2026-05-07 13:19 31.73352 131.61987 30943 ft 535 kts 56°
2026-05-07 13:20 31.77147 131.69440 30932 ft 534 kts 57°
2026-05-07 13:20 31.80952 131.76927 30924 ft 533 kts 57°
2026-05-07 13:21 31.84744 131.84404 30922 ft 534 kts 57°
2026-05-07 13:21 31.88537 131.91898 30918 ft 533 kts 57°
2026-05-07 13:22 31.92302 131.99352 30916 ft 534 kts 57°
2026-05-07 13:22 31.96097 132.06879 30912 ft 534 kts 57°
2026-05-07 13:23 31.99859 132.14354 30915 ft 534 kts 57°
2026-05-07 13:23 32.03621 132.21846 30914 ft 532 kts 57°
2026-05-07 13:24 32.07374 132.29334 30914 ft 531 kts 57°
2026-05-07 13:24 32.11144 132.36871 30914 ft 532 kts 57°
2026-05-07 13:25 32.14715 132.44461 30919 ft 532 kts 62°
2026-05-07 13:25 32.17988 132.52304 30919 ft 532 kts 62°
2026-05-07 13:26 32.21248 132.60088 30921 ft 531 kts 62°
2026-05-07 13:26 32.24529 132.67900 30917 ft 531 kts 62°
2026-05-07 13:27 32.27804 132.75694 30916 ft 530 kts 62°
2026-05-07 13:27 32.31078 132.83491 30914 ft 530 kts 62°
2026-05-07 13:28 32.34340 132.91269 30917 ft 530 kts 62°
2026-05-07 13:28 32.37605 132.99068 30918 ft 529 kts 62°
2026-05-07 13:29 32.40849 133.06830 30919 ft 529 kts 62°
2026-05-07 13:29 32.44107 133.14642 30917 ft 529 kts 62°
2026-05-07 13:30 32.47341 133.22412 30919 ft 529 kts 62°
2026-05-07 13:30 32.50585 133.30225 30922 ft 529 kts 62°
2026-05-07 13:31 32.53819 133.38031 30927 ft 528 kts 62°
2026-05-07 13:31 32.57041 133.45825 30923 ft 527 kts 62°
2026-05-07 13:32 32.60253 133.53607 30927 ft 528 kts 62°
2026-05-07 13:32 32.63469 133.61417 30921 ft 527 kts 62°
2026-05-07 13:33 32.66674 133.69220 30914 ft 527 kts 62°
2026-05-07 13:33 32.69857 133.76984 30913 ft 527 kts 62°
2026-05-07 13:34 32.74654 133.88719 30912 ft 528 kts 62°
2026-05-07 13:35 32.77837 133.96529 30911 ft 527 kts 62°
2026-05-07 13:35 32.81008 134.04324 30910 ft 526 kts 62°
2026-05-07 13:36 32.83530 134.12514 30910 ft 529 kts 72°
2026-05-07 13:36 32.85617 134.20865 30906 ft 529 kts 72°
2026-05-07 13:37 32.87691 134.29199 30909 ft 528 kts 72°
2026-05-07 13:37 32.89767 134.37564 30910 ft 529 kts 72°
2026-05-07 13:38 32.91843 134.45953 30910 ft 529 kts 72°
2026-05-07 13:38 32.93908 134.54320 30911 ft 529 kts 72°
2026-05-07 13:39 32.95971 134.62705 30911 ft 529 kts 73°
2026-05-07 13:39 32.98028 134.71089 30904 ft 530 kts 73°
2026-05-07 13:40 32.99976 134.79549 30896 ft 528 kts 80°
2026-05-07 13:40 33.01001 134.88144 30905 ft 530 kts 83°
2026-05-07 13:41 33.01950 134.96860 30906 ft 529 kts 83°
2026-05-07 13:41 33.02886 135.05522 30907 ft 531 kts 83°
2026-05-07 13:42 33.03821 135.14217 30908 ft 529 kts 83°
2026-05-07 13:42 33.04742 135.22841 30904 ft 528 kts 83°
2026-05-07 13:43 33.05660 135.31486 30908 ft 529 kts 83°
2026-05-07 13:43 33.06575 135.40173 30908 ft 528 kts 83°
2026-05-07 13:44 33.07481 135.48825 30910 ft 528 kts 83°
2026-05-07 13:44 33.08380 135.57468 30907 ft 527 kts 83°
2026-05-07 13:45 33.09273 135.66116 30914 ft 527 kts 84°
2026-05-07 13:45 33.10160 135.74771 30904 ft 526 kts 84°
2026-05-07 13:46 33.10938 135.82400 30904 ft 526 kts 84°
2026-05-07 13:46 33.11498 135.87929 30909 ft 527 kts 83°
2026-05-07 13:47 33.12371 135.96593 30912 ft 526 kts 83°
2026-05-07 13:47 33.13238 136.05260 30920 ft 526 kts 84°
2026-05-07 13:48 33.14092 136.13863 30923 ft 525 kts 84°
2026-05-07 13:48 33.14944 136.22493 30926 ft 524 kts 83°
2026-05-07 13:49 33.15786 136.31099 30929 ft 525 kts 84°
2026-05-07 13:49 33.16625 136.39726 30925 ft 524 kts 83°
2026-05-07 13:50 33.17456 136.48337 30920 ft 524 kts 83°
2026-05-07 13:50 33.18282 136.56963 30912 ft 525 kts 83°
2026-05-07 13:51 33.19103 136.65599 30915 ft 524 kts 84°
2026-05-07 13:51 33.19916 136.74223 30914 ft 524 kts 84°
2026-05-07 13:52 33.20725 136.82872 30920 ft 525 kts 84°
2026-05-07 13:52 33.21528 136.91507 30918 ft 525 kts 84°
2026-05-07 13:53 33.22320 137.00101 30919 ft 525 kts 84°
2026-05-07 13:53 33.23157 137.08714 30918 ft 524 kts 80°
2026-05-07 13:54 33.25043 137.17139 30927 ft 523 kts 73°
2026-05-07 13:54 33.27122 137.25406 30928 ft 522 kts 73°
2026-05-07 13:55 33.29198 137.33701 30930 ft 524 kts 73°
2026-05-07 13:55 33.31273 137.42029 30922 ft 523 kts 73°
2026-05-07 13:56 33.33332 137.50330 30927 ft 523 kts 73°
2026-05-07 13:56 33.35389 137.58647 30927 ft 524 kts 73°
2026-05-07 13:57 33.37447 137.66997 30925 ft 522 kts 74°
2026-05-07 13:57 33.39493 137.75330 30922 ft 523 kts 74°
2026-05-07 13:58 33.41519 137.83606 30921 ft 523 kts 74°
2026-05-07 13:58 33.43843 137.91826 30921 ft 521 kts 64°
2026-05-07 13:59 33.47468 137.99297 30921 ft 522 kts 58°
2026-05-07 13:59 33.51275 138.06676 30920 ft 521 kts 58°
2026-05-07 14:00 33.55075 138.14064 30913 ft 523 kts 58°
2026-05-07 14:00 33.58856 138.21437 30912 ft 522 kts 58°
2026-05-07 14:01 33.62654 138.28863 30916 ft 522 kts 58°
2026-05-07 14:01 33.66450 138.36302 30915 ft 522 kts 58°
2026-05-07 14:02 33.70213 138.43692 30913 ft 522 kts 58°
2026-05-07 14:02 33.74000 138.51146 30915 ft 521 kts 58°
2026-05-07 14:03 33.77760 138.58562 30912 ft 522 kts 58°
2026-05-07 14:03 33.81523 138.65996 30912 ft 521 kts 58°
2026-05-07 14:04 33.85268 138.73412 30907 ft 521 kts 58°
2026-05-07 14:04 33.89010 138.80835 30905 ft 521 kts 58°
2026-05-07 14:05 33.92778 138.88327 30907 ft 522 kts 58°
2026-05-07 14:05 33.96513 138.95769 30904 ft 521 kts 58°
2026-05-07 14:06 34.00240 139.03209 30905 ft 522 kts 58°
2026-05-07 14:06 34.03970 139.10673 30909 ft 521 kts 58°
2026-05-07 14:07 34.07700 139.18150 30905 ft 521 kts 58°
2026-05-07 14:07 34.11416 139.25617 30902 ft 520 kts 58°
2026-05-07 14:08 34.14513 139.31850 30903 ft 521 kts 59°
2026-05-07 14:08 34.18234 139.39351 30905 ft 520 kts 59°
2026-05-07 14:09 34.21953 139.46866 30902 ft 521 kts 59°
2026-05-07 14:09 34.25658 139.54369 30902 ft 522 kts 59°
2026-05-07 14:10 34.29362 139.61883 30907 ft 521 kts 59°
2026-05-07 14:10 34.33058 139.69398 30901 ft 522 kts 59°
2026-05-07 14:11 34.36745 139.76910 30906 ft 521 kts 59°
2026-05-07 14:11 34.40431 139.84438 30905 ft 522 kts 59°
2026-05-07 14:12 34.44127 139.92001 30907 ft 521 kts 60°
2026-05-07 14:12 34.47798 139.99530 30911 ft 521 kts 59°
2026-05-07 14:13 34.51486 140.07109 30905 ft 522 kts 60°
2026-05-07 14:13 34.55166 140.14688 30904 ft 523 kts 60°
2026-05-07 14:14 34.58844 140.22278 30907 ft 522 kts 60°
2026-05-07 14:14 34.62496 140.29834 30906 ft 524 kts 60°
2026-05-07 14:15 34.66167 140.37444 30909 ft 523 kts 60°
2026-05-07 14:15 34.69841 140.45076 30902 ft 524 kts 60°
2026-05-07 14:16 34.73394 140.52737 30907 ft 523 kts 62°
2026-05-07 14:16 34.76941 140.60472 30903 ft 523 kts 62°
2026-05-07 14:17 34.80467 140.68166 30894 ft 523 kts 62°
2026-05-07 14:17 34.83994 140.75874 30897 ft 523 kts 62°
2026-05-07 14:18 34.87511 140.83572 30892 ft 523 kts 62°
2026-05-07 14:18 34.91050 140.91334 30894 ft 522 kts 62°
2026-05-07 14:19 34.94550 140.99030 30902 ft 522 kts 62°
2026-05-07 14:19 34.98076 141.06796 30908 ft 522 kts 62°
2026-05-07 14:20 35.01553 141.14473 30912 ft 522 kts 62°
2026-05-07 14:20 35.05069 141.22255 30914 ft 523 kts 63°
2026-05-07 14:21 35.08562 141.30002 30915 ft 523 kts 63°
2026-05-07 14:21 35.12068 141.37795 30908 ft 524 kts 63°
2026-05-07 14:22 35.14693 141.43643 30903 ft 525 kts 63°
2026-05-07 14:22 35.18203 141.51476 30902 ft 526 kts 63°
2026-05-07 14:23 35.21695 141.59286 30909 ft 524 kts 63°
2026-05-07 14:23 35.25179 141.67097 30903 ft 525 kts 63°
2026-05-07 14:24 35.28663 141.74928 30901 ft 527 kts 63°
2026-05-07 14:24 35.32151 141.82783 30909 ft 524 kts 63°
2026-05-07 14:25 35.35642 141.90665 30906 ft 527 kts 63°
2026-05-07 14:25 35.39122 141.98540 30906 ft 527 kts 63°
2026-05-07 14:26 35.42590 142.06406 30909 ft 525 kts 63°
2026-05-07 14:26 35.46061 142.14298 30912 ft 529 kts 63°
2026-05-07 14:27 35.49529 142.22200 30908 ft 526 kts 63°
2026-05-07 14:27 35.52986 142.30098 30917 ft 529 kts 63°
2026-05-07 14:28 35.56457 142.38045 30913 ft 528 kts 63°
2026-05-07 14:28 35.59912 142.45973 30908 ft 528 kts 63°
2026-05-07 14:29 35.63373 142.53935 30914 ft 529 kts 63°
2026-05-07 14:29 35.66826 142.61899 30913 ft 533 kts 63°
2026-05-07 14:30 35.70336 142.70015 30906 ft 547 kts 64°
2026-05-07 14:30 35.73953 142.78398 30901 ft 559 kts 63°
2026-05-07 14:31 35.77599 142.86867 30904 ft 558 kts 63°
2026-05-07 14:31 35.81173 142.95187 30904 ft 550 kts 63°
2026-05-07 14:32 35.84745 143.03526 30903 ft 550 kts 63°
2026-05-07 14:32 35.88286 143.11816 30917 ft 550 kts 63°
2026-05-07 14:33 35.91691 143.20252 30919 ft 551 kts 71°
2026-05-07 14:33 35.93505 143.29301 30925 ft 545 kts 84°
2026-05-07 14:34 35.94535 143.38565 30915 ft 545 kts 85°
2026-05-07 14:34 35.95518 143.47810 30911 ft 545 kts 85°
2026-05-07 14:35 35.96478 143.57056 30919 ft 547 kts 85°
2026-05-07 14:35 35.97427 143.66328 30909 ft 546 kts 85°
2026-05-07 14:36 35.98367 143.75629 30897 ft 545 kts 86°
2026-05-07 14:36 35.99289 143.84862 30909 ft 546 kts 86°
2026-05-07 14:37 36.00212 143.94179 30914 ft 548 kts 86°
2026-05-07 14:37 36.01580 144.08142 30925 ft 545 kts 86°
2026-05-07 14:38 36.02483 144.17468 30936 ft 548 kts 85°
2026-05-07 14:38 36.03376 144.26761 30939 ft 547 kts 86°
2026-05-07 14:39 36.04261 144.36060 30936 ft 548 kts 85°
2026-05-07 14:39 36.05145 144.45412 30934 ft 549 kts 85°
2026-05-07 14:40 36.06019 144.54744 30938 ft 549 kts 85°
2026-05-07 14:40 36.06884 144.64062 30941 ft 549 kts 85°
2026-05-07 14:41 36.07746 144.73424 30938 ft 550 kts 86°
2026-05-07 14:41 36.08600 144.82785 30941 ft 549 kts 86°
2026-05-07 14:42 36.09449 144.92158 30942 ft 550 kts 86°
2026-05-07 14:42 36.10291 145.01555 30936 ft 551 kts 86°
2026-05-07 14:43 36.11130 145.11006 30938 ft 556 kts 86°
2026-05-07 14:43 36.11961 145.20442 30941 ft 556 kts 86°
2026-05-07 14:44 36.12785 145.29883 30951 ft 555 kts 86°
2026-05-07 14:44 36.13605 145.39371 30951 ft 556 kts 86°
2026-05-07 14:45 36.14653 145.48808 30953 ft 558 kts 78°
2026-05-07 14:45 36.16592 145.58144 30951 ft 561 kts 77°
2026-05-07 14:46 36.18549 145.67419 30952 ft 559 kts 77°
2026-05-07 14:46 36.20501 145.76750 30956 ft 561 kts 77°
2026-05-07 14:47 36.22434 145.86052 30955 ft 559 kts 77°
2026-05-07 14:47 36.23396 145.90697 30949 ft 548 kts 78°
2026-05-07 14:47 36.24321 145.95174 30952 ft 535 kts 77°
2026-05-07 14:48 36.26139 146.04018 30957 ft 535 kts 78°
2026-05-07 14:48 36.27959 146.12915 30959 ft 535 kts 77°
2026-05-07 14:49 36.29773 146.21815 30957 ft 534 kts 77°
2026-05-07 14:49 36.31580 146.30722 30963 ft 532 kts 77°
2026-05-07 14:50 36.33377 146.39618 30966 ft 535 kts 77°
2026-05-07 14:50 36.35169 146.48526 30963 ft 535 kts 77°
2026-05-07 14:51 36.36968 146.57503 30967 ft 537 kts 77°
2026-05-07 14:51 36.38750 146.66434 30978 ft 534 kts 78°
2026-05-07 14:52 36.40517 146.75331 30968 ft 535 kts 78°
2026-05-07 14:52 36.42286 146.84271 30969 ft 535 kts 78°
2026-05-07 14:53 36.44045 146.93201 30968 ft 535 kts 78°
2026-05-07 14:53 36.45806 147.02177 30974 ft 535 kts 78°
2026-05-07 14:54 36.47555 147.11131 30977 ft 537 kts 77°
2026-05-07 14:54 36.49308 147.20142 30981 ft 535 kts 77°
2026-05-07 14:55 36.51042 147.29097 30979 ft 537 kts 77°
2026-05-07 14:55 36.52779 147.38104 30983 ft 538 kts 78°
2026-05-07 14:56 36.54509 147.47116 30992 ft 538 kts 77°
2026-05-07 14:56 36.56247 147.56204 30989 ft 540 kts 78°
2026-05-07 14:57 36.57960 147.65205 31002 ft 540 kts 78°
2026-05-07 14:57 36.59682 147.74297 30991 ft 540 kts 78°
2026-05-07 14:58 36.61385 147.83324 30996 ft 541 kts 78°
2026-05-07 14:58 36.63100 147.92458 30999 ft 539 kts 78°
2026-05-07 14:59 36.64795 148.01524 31001 ft 540 kts 78°
2026-05-07 14:59 36.66482 148.10591 31008 ft 541 kts 78°
2026-05-07 15:00 36.68167 148.19687 31005 ft 542 kts 78°
2026-05-07 15:00 36.69849 148.28807 31005 ft 540 kts 78°
2026-05-07 15:01 36.71516 148.37886 31006 ft 542 kts 78°
2026-05-07 15:01 36.73186 148.47026 31016 ft 542 kts 78°
2026-05-07 15:02 36.74852 148.56181 31026 ft 543 kts 78°
2026-05-07 15:02 36.76508 148.65329 31037 ft 546 kts 78°
2026-05-07 15:03 36.78162 148.74506 31026 ft 543 kts 78°
2026-05-07 15:03 36.79811 148.83704 31035 ft 544 kts 78°
2026-05-07 15:04 36.81444 148.92851 31033 ft 545 kts 78°
2026-05-07 15:04 36.83088 149.02106 31033 ft 545 kts 78°
2026-05-07 15:05 36.84708 149.11264 31042 ft 545 kts 78°
2026-05-07 15:05 36.86328 149.20474 31042 ft 545 kts 78°
2026-05-07 15:06 36.87948 149.29724 31043 ft 546 kts 78°
2026-05-07 15:06 36.89556 149.38947 31048 ft 546 kts 78°
2026-05-07 15:07 36.91156 149.48173 31039 ft 545 kts 78°
2026-05-07 15:07 36.92751 149.57417 31041 ft 544 kts 77°
2026-05-07 15:08 36.94333 149.66626 31033 ft 546 kts 78°
2026-05-07 15:08 36.95917 149.75896 31022 ft 547 kts 78°
2026-05-07 15:09 36.97481 149.85091 31025 ft 545 kts 78°
2026-05-07 15:09 36.99048 149.94356 31026 ft 546 kts 78°
2026-05-07 15:10 37.00697 150.03638 31027 ft 545 kts 73°
2026-05-07 15:10 37.02976 150.12616 31037 ft 546 kts 71°
2026-05-07 15:11 37.05267 150.21635 31036 ft 546 kts 71°
2026-05-07 15:11 37.07535 150.30704 31037 ft 547 kts 71°
2026-05-07 15:12 37.09784 150.39793 31041 ft 547 kts 71°
2026-05-07 15:12 37.12013 150.48871 31044 ft 547 kts 72°
2026-05-07 15:13 37.14220 150.57916 31043 ft 546 kts 71°
2026-05-07 15:13 37.16430 150.67020 31038 ft 548 kts 72°
2026-05-07 15:14 37.18636 150.76149 31039 ft 548 kts 72°
2026-05-07 15:14 37.20834 150.85280 31038 ft 549 kts 72°
2026-05-07 15:15 37.23014 150.94374 31041 ft 547 kts 72°
2026-05-07 15:15 37.25186 151.03473 31048 ft 546 kts 72°
2026-05-07 15:16 37.27348 151.12560 31050 ft 547 kts 72°
2026-05-07 15:16 37.29514 151.21703 31052 ft 546 kts 72°
2026-05-07 15:17 37.31661 151.30797 31057 ft 546 kts 72°
2026-05-07 15:17 37.33807 151.39926 31057 ft 546 kts 72°
2026-05-07 15:18 37.35933 151.49004 31063 ft 544 kts 72°
2026-05-07 15:18 37.38059 151.58115 31068 ft 544 kts 72°
2026-05-07 15:19 37.40166 151.67178 31061 ft 544 kts 73°
2026-05-07 15:19 37.42280 151.76312 31059 ft 542 kts 72°
2026-05-07 15:20 37.44373 151.85384 31066 ft 543 kts 72°
2026-05-07 15:20 37.46464 151.94488 31071 ft 542 kts 73°
2026-05-07 15:21 37.48546 152.03587 31071 ft 541 kts 73°
2026-05-07 15:21 37.50613 152.12653 31073 ft 542 kts 72°
2026-05-07 15:22 37.52678 152.21748 31075 ft 542 kts 73°
2026-05-07 15:22 37.54733 152.30835 31076 ft 541 kts 72°
2026-05-07 15:23 37.56779 152.39917 31079 ft 542 kts 72°
2026-05-07 15:23 37.58825 152.49034 31079 ft 540 kts 73°
2026-05-07 15:24 37.60859 152.58138 31081 ft 541 kts 72°
2026-05-07 15:24 37.62886 152.67242 31075 ft 540 kts 73°
2026-05-07 15:25 37.64892 152.76289 31073 ft 541 kts 73°
2026-05-07 15:25 37.66911 152.85435 31072 ft 540 kts 73°
2026-05-07 15:26 37.68910 152.94522 31074 ft 539 kts 73°
2026-05-07 15:26 37.70894 153.03578 31075 ft 538 kts 73°
2026-05-07 15:27 37.72889 153.12723 31081 ft 539 kts 73°
2026-05-07 15:27 37.74863 153.21806 31081 ft 539 kts 73°
2026-05-07 15:28 37.76823 153.30868 31084 ft 539 kts 73°
2026-05-07 15:28 37.78779 153.39943 31092 ft 537 kts 73°
2026-05-07 15:29 37.80729 153.49028 31089 ft 536 kts 73°
2026-05-07 15:29 37.82670 153.58109 31093 ft 536 kts 73°
2026-05-07 15:30 37.84602 153.67180 31087 ft 536 kts 74°
2026-05-07 15:30 37.86525 153.76254 31085 ft 535 kts 73°
2026-05-07 15:31 37.88443 153.85339 31090 ft 535 kts 74°
2026-05-07 15:31 37.90351 153.94417 31090 ft 534 kts 73°
2026-05-07 15:32 37.92247 154.03471 31094 ft 535 kts 74°
2026-05-07 15:32 37.94149 154.12592 31102 ft 535 kts 73°
2026-05-07 15:33 37.96026 154.21632 31104 ft 534 kts 73°
2026-05-07 15:33 37.97911 154.30749 31102 ft 534 kts 73°
2026-05-07 15:34 37.99771 154.39784 31108 ft 534 kts 73°
2026-05-07 15:34 38.01639 154.48895 31116 ft 535 kts 73°
2026-05-07 15:35 38.03491 154.57970 31120 ft 534 kts 73°
2026-05-07 15:35 38.05342 154.67079 31115 ft 535 kts 74°
2026-05-07 15:36 38.07187 154.76193 31115 ft 535 kts 74°
2026-05-07 15:36 38.09030 154.85338 31121 ft 536 kts 74°
2026-05-07 15:37 38.10862 154.94475 31124 ft 534 kts 74°
2026-05-07 15:37 38.12684 155.03593 31130 ft 536 kts 74°
2026-05-07 15:38 38.14498 155.12715 31131 ft 536 kts 74°
2026-05-07 15:38 38.16313 155.21880 31130 ft 536 kts 74°
2026-05-07 15:39 38.18113 155.31009 31133 ft 535 kts 74°
2026-05-07 15:39 38.19912 155.40181 31134 ft 534 kts 73°
2026-05-07 15:40 38.21699 155.49326 31132 ft 536 kts 73°
2026-05-07 15:40 38.23481 155.58489 31135 ft 535 kts 74°
2026-05-07 15:41 38.25245 155.67595 31128 ft 535 kts 75°
2026-05-07 15:41 38.27019 155.76796 31125 ft 536 kts 75°
2026-05-07 15:42 38.28775 155.85951 31130 ft 535 kts 75°
2026-05-07 15:42 38.30533 155.95149 31131 ft 535 kts 75°
2026-05-07 15:43 38.32285 156.04366 31133 ft 536 kts 75°
2026-05-07 15:43 38.34019 156.13524 31134 ft 536 kts 74°
2026-05-07 15:44 38.35760 156.22766 31135 ft 535 kts 74°
2026-05-07 15:44 38.37483 156.31955 31135 ft 536 kts 74°
2026-05-07 15:45 38.39202 156.41161 31138 ft 537 kts 74°
2026-05-07 15:45 38.40917 156.50394 31137 ft 537 kts 74°
2026-05-07 15:46 38.43476 156.64250 31140 ft 537 kts 74°
2026-05-07 15:47 38.45171 156.73480 31130 ft 537 kts 75°
2026-05-07 15:47 38.46855 156.82692 31129 ft 536 kts 75°
2026-05-07 15:48 38.48537 156.91942 31130 ft 537 kts 75°
2026-05-07 15:48 38.50214 157.01210 31131 ft 535 kts 75°
2026-05-07 15:49 38.51884 157.10480 31132 ft 538 kts 75°
2026-05-07 15:49 38.53539 157.19713 31134 ft 537 kts 75°
2026-05-07 15:50 38.55202 157.29031 31135 ft 539 kts 75°
2026-05-07 15:50 38.56844 157.38281 31136 ft 537 kts 74°
2026-05-07 15:51 38.58492 157.47607 31137 ft 539 kts 74°
2026-05-07 15:51 38.60128 157.56917 31138 ft 538 kts 74°
2026-05-07 15:52 38.61756 157.66225 31136 ft 540 kts 75°
2026-05-07 15:52 38.63376 157.75539 31128 ft 538 kts 75°
2026-05-07 15:53 38.64993 157.84872 31128 ft 538 kts 75°
2026-05-07 15:53 38.66595 157.94174 31130 ft 538 kts 75°
2026-05-07 15:54 38.68200 158.03532 31131 ft 539 kts 75°
2026-05-07 15:54 38.69793 158.12877 31133 ft 539 kts 75°
2026-05-07 15:55 38.71380 158.22231 31132 ft 540 kts 75°
2026-05-07 15:55 38.72955 158.31558 31135 ft 540 kts 75°
2026-05-07 15:56 38.74529 158.40929 31135 ft 540 kts 75°
2026-05-07 15:56 38.76096 158.50311 31137 ft 541 kts 75°
2026-05-07 15:57 38.77659 158.59717 31139 ft 539 kts 75°
2026-05-07 15:57 38.79208 158.69089 31127 ft 541 kts 75°
2026-05-07 15:58 38.80755 158.78493 31126 ft 541 kts 75°
2026-05-07 15:58 38.82294 158.87904 31129 ft 541 kts 75°
2026-05-07 15:59 38.83824 158.97305 31132 ft 543 kts 75°
2026-05-07 15:59 38.85348 159.06728 31132 ft 542 kts 75°
2026-05-07 16:00 38.86868 159.16168 31131 ft 541 kts 75°
2026-05-07 16:00 38.88381 159.25621 31132 ft 542 kts 75°
2026-05-07 16:01 38.89881 159.35043 31135 ft 542 kts 75°
2026-05-07 16:01 38.91381 159.44518 31136 ft 543 kts 75°
2026-05-07 16:02 38.92867 159.53954 31138 ft 542 kts 74°
2026-05-07 16:02 38.94352 159.63440 31140 ft 542 kts 74°
2026-05-07 16:03 38.95831 159.72934 31126 ft 544 kts 75°
2026-05-07 16:03 38.97295 159.82388 31129 ft 543 kts 75°
2026-05-07 16:04 38.98753 159.91861 31130 ft 543 kts 75°
2026-05-07 16:04 39.00196 160.01410 31195 ft 543 kts 75°
2026-05-07 16:04 39.00877 160.06105 31319 ft 543 kts 76°
2026-05-07 16:05 39.01572 160.10921 31449 ft 543 kts 76°
2026-05-07 16:05 39.02246 160.15617 31576 ft 542 kts 76°
2026-05-07 16:05 39.02927 160.20369 31707 ft 543 kts 76°
2026-05-07 16:05 39.03608 160.25134 31838 ft 541 kts 76°
2026-05-07 16:06 39.04285 160.29897 31971 ft 541 kts 75°
2026-05-07 16:06 39.04961 160.34659 32105 ft 541 kts 75°
2026-05-07 16:06 39.05627 160.39375 32238 ft 541 kts 75°
2026-05-07 16:06 39.06301 160.44153 32374 ft 541 kts 75°
2026-05-07 16:07 39.06963 160.48860 32509 ft 540 kts 75°
2026-05-07 16:07 39.07629 160.53618 32646 ft 539 kts 75°
2026-05-07 16:07 39.08284 160.58307 32783 ft 540 kts 75°
2026-05-07 16:07 39.08946 160.63058 32923 ft 541 kts 75°
2026-05-07 16:08 39.09607 160.67825 33050 ft 538 kts 76°
2026-05-07 16:08 39.10916 160.77300 33145 ft 539 kts 76°
2026-05-07 16:09 39.12223 160.86816 33149 ft 546 kts 76°
2026-05-07 16:09 39.13539 160.96454 33150 ft 547 kts 76°
2026-05-07 16:10 39.14834 161.06015 33155 ft 546 kts 76°
2026-05-07 16:10 39.16133 161.15660 33154 ft 548 kts 76°
2026-05-07 16:11 39.17416 161.25258 33160 ft 546 kts 76°
2026-05-07 16:11 39.18698 161.34898 33164 ft 548 kts 76°
2026-05-07 16:12 39.19972 161.44550 33167 ft 546 kts 76°
2026-05-07 16:12 39.21230 161.54140 33169 ft 547 kts 75°
2026-05-07 16:13 39.22486 161.63773 33174 ft 547 kts 76°
2026-05-07 16:13 39.23734 161.73418 33162 ft 548 kts 76°
2026-05-07 16:14 39.24976 161.83077 33167 ft 547 kts 76°
2026-05-07 16:14 39.26210 161.92735 33171 ft 549 kts 76°
2026-05-07 16:15 39.27440 162.02434 33173 ft 549 kts 76°
2026-05-07 16:15 39.28657 162.12106 33178 ft 547 kts 76°
2026-05-07 16:16 39.29865 162.21759 33182 ft 547 kts 76°
2026-05-07 16:16 39.31068 162.31441 33184 ft 548 kts 76°
2026-05-07 16:17 39.32259 162.41098 33186 ft 546 kts 76°
2026-05-07 16:17 39.33437 162.50719 33188 ft 546 kts 76°
2026-05-07 16:18 39.34612 162.60376 33191 ft 547 kts 76°
2026-05-07 16:18 39.35780 162.70047 33178 ft 545 kts 76°
2026-05-07 16:19 39.36935 162.79684 33183 ft 547 kts 77°
2026-05-07 16:19 39.38090 162.89383 33185 ft 546 kts 76°
2026-05-07 16:20 39.39232 162.99052 33183 ft 547 kts 76°
2026-05-07 16:20 39.40367 163.08730 33188 ft 546 kts 77°
2026-05-07 16:21 39.41494 163.18416 33190 ft 546 kts 76°
2026-05-07 16:21 39.42616 163.28119 33191 ft 546 kts 76°
2026-05-07 16:22 39.43724 163.37782 33203 ft 546 kts 76°
2026-05-07 16:22 39.44823 163.47446 33210 ft 544 kts 76°
2026-05-07 16:23 39.45919 163.57146 33209 ft 545 kts 76°
2026-05-07 16:23 39.46997 163.66765 33201 ft 543 kts 77°
2026-05-07 16:24 39.48077 163.76469 33198 ft 546 kts 77°
2026-05-07 16:24 39.49142 163.86122 33201 ft 545 kts 77°
2026-05-07 16:25 39.50198 163.95761 33205 ft 544 kts 77°
2026-05-07 16:25 39.51255 164.05487 33207 ft 545 kts 77°
2026-05-07 16:26 39.52297 164.15163 33206 ft 544 kts 77°
2026-05-07 16:26 39.53331 164.24831 33209 ft 544 kts 77°
2026-05-07 16:27 39.54355 164.34483 33216 ft 543 kts 77°
2026-05-07 16:27 39.55373 164.44162 33215 ft 544 kts 77°
2026-05-07 16:28 39.56381 164.53824 33214 ft 542 kts 77°
2026-05-07 16:28 39.57380 164.63475 33218 ft 543 kts 77°
2026-05-07 16:29 39.58374 164.73163 33206 ft 544 kts 78°
2026-05-07 16:29 39.59357 164.82820 33212 ft 543 kts 77°
2026-05-07 16:30 39.60329 164.92458 33211 ft 542 kts 77°
2026-05-07 16:30 39.61291 165.02074 33215 ft 540 kts 77°
2026-05-07 16:31 39.62254 165.11768 33214 ft 543 kts 77°
2026-05-07 16:31 39.63199 165.21385 33221 ft 540 kts 77°
2026-05-07 16:32 39.64140 165.31038 33222 ft 542 kts 77°
2026-05-07 16:32 39.65076 165.40727 33217 ft 540 kts 77°
2026-05-07 16:33 39.66001 165.50377 33220 ft 541 kts 77°
2026-05-07 16:33 39.66914 165.60002 33223 ft 538 kts 77°
2026-05-07 16:34 39.67816 165.69585 33217 ft 539 kts 77°
2026-05-07 16:34 39.68718 165.79254 33225 ft 540 kts 78°
2026-05-07 16:35 39.69608 165.88887 33227 ft 540 kts 78°
2026-05-07 16:35 39.70491 165.98538 33230 ft 538 kts 77°
2026-05-07 16:36 39.71365 166.08177 33235 ft 540 kts 77°
2026-05-07 16:36 39.72234 166.17844 33237 ft 540 kts 77°
2026-05-07 16:37 39.73089 166.27455 33239 ft 540 kts 77°
2026-05-07 16:37 39.73938 166.37100 33237 ft 536 kts 77°
2026-05-07 16:38 39.74776 166.46699 33238 ft 537 kts 77°
2026-05-07 16:38 39.75607 166.56306 33241 ft 539 kts 77°
2026-05-07 16:39 39.76431 166.65939 33242 ft 537 kts 78°
2026-05-07 16:39 39.77251 166.75601 33231 ft 540 kts 78°
2026-05-07 16:40 39.78057 166.85216 33236 ft 539 kts 78°
2026-05-07 16:40 39.78858 166.94864 33234 ft 538 kts 78°
2026-05-07 16:41 39.79650 167.04494 33243 ft 538 kts 78°
2026-05-07 16:41 39.80434 167.14137 33244 ft 537 kts 78°
2026-05-07 16:42 39.81215 167.23830 33241 ft 539 kts 78°
2026-05-07 16:42 39.81980 167.33432 33247 ft 539 kts 78°
2026-05-07 16:43 39.82742 167.43111 33243 ft 537 kts 78°
2026-05-07 16:43 39.83495 167.52759 33244 ft 537 kts 78°
2026-05-07 16:44 39.84238 167.62392 33247 ft 539 kts 78°
2026-05-07 16:44 39.84974 167.72035 33225 ft 537 kts 79°
2026-05-07 16:45 39.85703 167.81705 33230 ft 536 kts 79°
2026-05-07 16:45 39.86423 167.91354 33240 ft 538 kts 79°
2026-05-07 16:46 39.87138 168.01044 33237 ft 538 kts 79°
2026-05-07 16:46 39.87838 168.10664 33240 ft 536 kts 79°
2026-05-07 16:47 39.88536 168.20326 33244 ft 540 kts 79°
2026-05-07 16:47 39.89222 168.29962 33242 ft 538 kts 79°
2026-05-07 16:48 39.89901 168.39615 33248 ft 536 kts 79°
2026-05-07 16:48 39.90572 168.49268 33252 ft 539 kts 79°
2026-05-07 16:49 39.91238 168.58960 33253 ft 540 kts 79°
2026-05-07 16:49 39.91892 168.68616 33246 ft 537 kts 79°
2026-05-07 16:50 39.92542 168.78304 33243 ft 539 kts 80°
2026-05-07 16:50 39.93183 168.87997 33254 ft 539 kts 80°
2026-05-07 16:51 39.93814 168.97662 33257 ft 538 kts 80°
2026-05-07 16:51 39.94439 169.07352 33261 ft 536 kts 80°
2026-05-07 16:52 39.95051 169.16980 33254 ft 535 kts 80°
2026-05-07 16:52 39.95656 169.26598 33253 ft 537 kts 80°
2026-05-07 16:53 39.96254 169.36263 33255 ft 534 kts 80°
2026-05-07 16:53 39.96841 169.45859 33255 ft 535 kts 80°
2026-05-07 16:54 39.97421 169.55495 33260 ft 534 kts 79°
2026-05-07 16:54 39.97992 169.65109 33257 ft 533 kts 80°
2026-05-07 16:55 39.98557 169.74736 33253 ft 534 kts 80°
2026-05-07 16:55 39.99107 169.84270 33252 ft 531 kts 80°
2026-05-07 16:56 39.99652 169.93837 33250 ft 530 kts 80°
2026-05-07 16:56 40.00912 170.08048 33253 ft 522 kts 72°
2026-05-07 16:57 40.02357 170.17329 33265 ft 523 kts 72°
2026-05-07 16:57 40.03742 170.26561 33275 ft 523 kts 72°
2026-05-07 16:58 40.05093 170.35814 33269 ft 520 kts 72°
2026-05-07 16:58 40.06422 170.45077 33270 ft 520 kts 73°
2026-05-07 16:59 40.07734 170.54336 33267 ft 522 kts 72°
2026-05-07 16:59 40.09028 170.63567 33269 ft 519 kts 72°
2026-05-07 17:00 40.10327 170.72893 33279 ft 520 kts 73°
2026-05-07 17:00 40.11599 170.82094 33280 ft 520 kts 73°
2026-05-07 17:01 40.12862 170.91310 33275 ft 516 kts 73°
2026-05-07 17:01 40.14128 171.00586 33283 ft 516 kts 73°
2026-05-07 17:02 40.15376 171.09792 33280 ft 518 kts 73°
2026-05-07 17:02 40.16619 171.19019 33277 ft 521 kts 73°
2026-05-07 17:03 40.17859 171.28304 33289 ft 516 kts 73°
2026-05-07 17:03 40.19087 171.37538 33286 ft 519 kts 73°
2026-05-07 17:04 40.20319 171.46860 33281 ft 521 kts 73°
2026-05-07 17:04 40.21531 171.56102 33286 ft 519 kts 73°
2026-05-07 17:05 40.22747 171.65428 33295 ft 521 kts 75°
2026-05-07 17:05 40.23951 171.74718 33285 ft 522 kts 75°
2026-05-07 17:06 40.25153 171.84065 33279 ft 520 kts 75°
2026-05-07 17:06 40.26349 171.93410 33272 ft 524 kts 75°
2026-05-07 17:07 40.27537 172.02783 33277 ft 521 kts 75°
2026-05-07 17:07 40.28706 172.12051 33278 ft 522 kts 75°
2026-05-07 17:08 40.29881 172.21425 33278 ft 522 kts 75°
2026-05-07 17:08 40.31046 172.30785 33274 ft 524 kts 75°
2026-05-07 17:09 40.32202 172.40150 33283 ft 521 kts 75°
2026-05-07 17:09 40.33356 172.49545 33280 ft 524 kts 75°
2026-05-07 17:10 40.34500 172.58933 33277 ft 520 kts 75°
2026-05-07 17:10 40.35628 172.68259 33266 ft 520 kts 76°
2026-05-07 17:11 40.36751 172.77596 33269 ft 521 kts 76°
2026-05-07 17:11 40.37863 172.86914 33281 ft 521 kts 76°
2026-05-07 17:12 40.38972 172.96269 33273 ft 520 kts 76°
2026-05-07 17:12 40.40070 173.05597 33272 ft 521 kts 76°
2026-05-07 17:13 40.41167 173.14986 33273 ft 522 kts 76°
2026-05-07 17:13 40.42249 173.24324 33276 ft 521 kts 76°
2026-05-07 17:14 40.43331 173.33719 33271 ft 522 kts 76°
2026-05-07 17:14 40.44400 173.43072 33274 ft 522 kts 76°
2026-05-07 17:15 40.45467 173.52475 33288 ft 520 kts 76°
2026-05-07 17:15 40.46525 173.61877 33286 ft 521 kts 76°
2026-05-07 17:16 40.47571 173.71233 33279 ft 521 kts 77°
2026-05-07 17:16 40.48611 173.80617 33272 ft 520 kts 77°
2026-05-07 17:17 40.49646 173.90016 33272 ft 521 kts 77°
2026-05-07 17:17 40.50673 173.99414 33272 ft 522 kts 77°
2026-05-07 17:18 40.51689 174.08797 33282 ft 519 kts 77°
2026-05-07 17:18 40.52695 174.18150 33282 ft 520 kts 77°
2026-05-07 17:19 40.53699 174.27553 33277 ft 521 kts 77°
2026-05-07 17:19 40.54691 174.36934 33287 ft 520 kts 77°
2026-05-07 17:20 40.55674 174.46291 33272 ft 520 kts 77°
2026-05-07 17:20 40.56654 174.55690 33272 ft 521 kts 77°
2026-05-07 17:21 40.57625 174.65091 33275 ft 520 kts 78°
2026-05-07 17:21 40.58588 174.74484 33269 ft 522 kts 78°
2026-05-07 17:22 40.59549 174.83934 33273 ft 521 kts 78°
2026-05-07 17:22 40.60493 174.93311 33271 ft 520 kts 78°
2026-05-07 17:23 40.61433 175.02713 33268 ft 519 kts 78°
2026-05-07 17:23 40.62361 175.12065 33260 ft 520 kts 78°
2026-05-07 17:24 40.63287 175.21480 33261 ft 521 kts 78°
2026-05-07 17:24 40.64203 175.30885 33261 ft 520 kts 78°
2026-05-07 17:25 40.65117 175.40340 33261 ft 521 kts 78°
2026-05-07 17:25 40.66022 175.49794 33258 ft 522 kts 78°
2026-05-07 17:26 40.66917 175.59216 33262 ft 522 kts 78°
2026-05-07 17:26 40.67806 175.68658 33247 ft 522 kts 79°
2026-05-07 17:27 40.68686 175.78099 33255 ft 522 kts 79°
2026-05-07 17:27 40.69563 175.87593 33263 ft 521 kts 79°
2026-05-07 17:28 40.70426 175.97009 33258 ft 523 kts 79°
2026-05-07 17:28 40.71283 176.06447 33263 ft 522 kts 79°
2026-05-07 17:29 40.72134 176.15926 33265 ft 521 kts 79°
2026-05-07 17:29 40.72978 176.25395 33266 ft 522 kts 79°
2026-05-07 17:30 40.73815 176.34888 33253 ft 522 kts 79°
2026-05-07 17:30 40.74645 176.44369 33259 ft 523 kts 79°
2026-05-07 17:31 40.75464 176.53838 33259 ft 523 kts 79°
2026-05-07 17:31 40.76281 176.63368 33251 ft 523 kts 79°
2026-05-07 17:32 40.77089 176.72891 33237 ft 525 kts 79°
2026-05-07 17:32 40.77754 176.80801 33232 ft 524 kts 80°
2026-05-07 17:33 40.78677 176.91898 33231 ft 523 kts 79°
2026-05-07 17:33 40.79464 177.01437 33228 ft 525 kts 80°
2026-05-07 17:34 40.80238 177.10945 33231 ft 524 kts 80°
2026-05-07 17:34 40.81008 177.20493 33226 ft 524 kts 80°
2026-05-07 17:35 40.81768 177.30006 33239 ft 525 kts 79°
2026-05-07 17:35 40.82521 177.39546 33247 ft 523 kts 80°
2026-05-07 17:36 40.83268 177.49104 33244 ft 525 kts 79°
2026-05-07 17:36 40.84009 177.58693 33235 ft 525 kts 79°
2026-05-07 17:37 40.84739 177.68243 33228 ft 525 kts 80°
2026-05-07 17:37 40.85463 177.77817 33219 ft 527 kts 80°
2026-05-07 17:38 40.86178 177.87390 33227 ft 525 kts 80°
2026-05-07 17:38 40.86885 177.96939 33221 ft 527 kts 80°
2026-05-07 17:39 40.87584 178.06522 33219 ft 524 kts 80°
2026-05-07 17:39 40.88278 178.16116 33223 ft 527 kts 80°
2026-05-07 17:40 40.88963 178.25720 33223 ft 525 kts 80°
2026-05-07 17:40 40.89637 178.35268 33220 ft 528 kts 80°
2026-05-07 17:41 40.90310 178.44923 33216 ft 527 kts 80°
2026-05-07 17:41 40.90969 178.54498 33216 ft 528 kts 80°
2026-05-07 17:42 40.91625 178.64133 33225 ft 527 kts 80°
2026-05-07 17:42 40.92271 178.73747 33214 ft 528 kts 80°
2026-05-07 17:43 40.92912 178.83426 33215 ft 528 kts 80°
2026-05-07 17:43 40.93540 178.93008 33214 ft 528 kts 81°
2026-05-07 17:44 40.94166 179.02693 33215 ft 528 kts 80°
2026-05-07 17:44 40.94777 179.12268 33215 ft 529 kts 81°
2026-05-07 17:45 40.95388 179.21974 33205 ft 528 kts 81°
2026-05-07 17:45 40.95986 179.31613 33211 ft 529 kts 81°
2026-05-07 17:46 40.96575 179.41234 33204 ft 527 kts 80°
2026-05-07 17:46 40.97160 179.50905 33210 ft 528 kts 81°
2026-05-07 17:47 40.97734 179.60539 33204 ft 529 kts 81°
2026-05-07 17:47 40.98304 179.70233 33188 ft 531 kts 81°
2026-05-07 17:48 40.98861 179.79884 33191 ft 529 kts 81°
2026-05-07 17:48 40.99415 179.89594 33199 ft 530 kts 81°
2026-05-07 17:49 40.99805 179.99239 33194 ft 533 kts 88°
2026-05-07 17:49 40.99387 -179.90950 33197 ft 535 kts 90°
2026-05-07 17:50 40.98877 -179.81175 33199 ft 536 kts 90°
2026-05-07 17:50 40.98334 -179.71332 33192 ft 537 kts 90°
2026-05-07 17:51 40.97774 -179.61530 33186 ft 538 kts 90°
2026-05-07 17:51 40.97196 -179.51692 33193 ft 538 kts 90°
2026-05-07 17:52 40.96608 -179.41861 33189 ft 538 kts 91°
2026-05-07 17:52 40.96008 -179.32031 33184 ft 538 kts 91°
2026-05-07 17:53 40.95401 -179.22214 33189 ft 538 kts 91°
2026-05-07 17:53 40.94785 -179.12411 33188 ft 538 kts 91°
2026-05-07 17:54 40.94154 -179.02527 33187 ft 538 kts 91°
2026-05-07 17:54 40.93521 -178.92732 33194 ft 538 kts 91°
2026-05-07 17:55 40.92878 -178.82907 33192 ft 541 kts 91°
2026-05-07 17:55 40.92224 -178.73065 33189 ft 538 kts 91°
2026-05-07 17:56 40.91560 -178.63170 33190 ft 541 kts 91°
2026-05-07 17:56 40.90892 -178.53372 33192 ft 541 kts 91°
2026-05-07 17:57 40.90322 -178.45106 33177 ft 541 kts 92°
2026-05-07 17:57 40.89522 -178.33637 33185 ft 540 kts 91°
2026-05-07 17:58 40.88827 -178.23798 33175 ft 542 kts 92°
2026-05-07 17:58 40.88120 -178.13924 33175 ft 541 kts 92°
2026-05-07 17:59 40.87405 -178.04057 33173 ft 539 kts 91°
2026-05-07 17:59 40.86688 -177.94269 33178 ft 540 kts 91°
2026-05-07 18:00 40.85952 -177.84355 33174 ft 540 kts 92°
2026-05-07 18:00 40.85218 -177.74573 33179 ft 540 kts 91°
2026-05-07 18:01 40.84468 -177.64691 33173 ft 541 kts 92°
2026-05-07 18:01 40.83711 -177.54823 33164 ft 541 kts 91°
2026-05-07 18:02 40.82565 -177.40111 33183 ft 541 kts 91°
2026-05-07 18:03 40.81787 -177.30246 33177 ft 544 kts 92°
2026-05-07 18:03 40.80994 -177.20322 33178 ft 542 kts 92°
2026-05-07 18:04 40.80202 -177.10501 33178 ft 542 kts 92°
2026-05-07 18:04 40.79398 -177.00648 33179 ft 543 kts 92°
2026-05-07 18:05 40.78584 -176.90765 33177 ft 543 kts 92°
2026-05-07 18:05 40.77758 -176.80846 33183 ft 543 kts 92°
2026-05-07 18:06 40.76925 -176.70955 33183 ft 543 kts 92°
2026-05-07 18:06 40.76089 -176.61124 33177 ft 544 kts 92°
2026-05-07 18:07 40.75236 -176.51199 33178 ft 543 kts 92°
2026-05-07 18:07 40.74379 -176.41322 33177 ft 545 kts 92°
2026-05-07 18:08 40.73513 -176.31445 33166 ft 544 kts 92°
2026-05-07 18:08 40.72640 -176.21590 33168 ft 543 kts 92°
2026-05-07 18:09 40.71758 -176.11725 33169 ft 545 kts 93°
2026-05-07 18:09 40.70868 -176.01874 33165 ft 544 kts 93°
2026-05-07 18:10 40.69968 -175.91992 33161 ft 545 kts 93°
2026-05-07 18:10 40.69061 -175.82149 33168 ft 544 kts 93°
2026-05-07 18:11 40.68141 -175.72249 33160 ft 544 kts 93°
2026-05-07 18:11 40.67218 -175.62405 33159 ft 543 kts 93°
2026-05-07 18:12 40.66284 -175.52541 33166 ft 544 kts 93°
2026-05-07 18:12 40.65341 -175.42668 33153 ft 546 kts 92°
2026-05-07 18:13 40.64392 -175.32829 33151 ft 546 kts 94°
2026-05-07 18:13 40.63428 -175.22925 33157 ft 544 kts 94°
2026-05-07 18:14 40.62461 -175.13077 33155 ft 546 kts 94°
2026-05-07 18:14 40.61481 -175.03191 33146 ft 545 kts 94°
2026-05-07 18:15 40.60500 -174.93376 33154 ft 546 kts 94°
2026-05-07 18:15 40.59502 -174.83473 33151 ft 546 kts 93°
2026-05-07 18:16 40.58497 -174.73593 33147 ft 549 kts 93°
2026-05-07 18:16 40.57478 -174.63664 33141 ft 548 kts 94°
2026-05-07 18:17 40.56458 -174.53804 33144 ft 549 kts 93°
2026-05-07 18:17 40.55426 -174.43921 33152 ft 548 kts 93°
2026-05-07 18:18 40.54380 -174.33980 33141 ft 549 kts 94°
2026-05-07 18:18 40.53328 -174.24066 33126 ft 550 kts 94°
2026-05-07 18:19 40.52271 -174.14200 33132 ft 549 kts 94°
2026-05-07 18:19 40.51196 -174.04234 33130 ft 549 kts 94°
2026-05-07 18:20 40.50118 -173.94325 33135 ft 551 kts 94°
2026-05-07 18:20 40.49032 -173.84431 33134 ft 549 kts 94°
2026-05-07 18:21 40.47935 -173.74510 33131 ft 552 kts 94°
2026-05-07 18:21 40.46832 -173.64613 33129 ft 551 kts 94°
2026-05-07 18:22 40.45712 -173.54645 33124 ft 552 kts 94°
2026-05-07 18:22 40.44593 -173.44769 33135 ft 552 kts 94°
2026-05-07 18:23 40.43453 -173.34781 33132 ft 554 kts 95°
2026-05-07 18:23 40.42308 -173.24832 33119 ft 553 kts 95°
2026-05-07 18:24 40.41156 -173.14896 33118 ft 555 kts 95°
2026-05-07 18:24 40.39992 -173.04936 33116 ft 555 kts 95°
2026-05-07 18:25 40.38818 -172.94969 33119 ft 554 kts 95°
2026-05-07 18:25 40.37635 -172.84996 33114 ft 555 kts 95°
2026-05-07 18:26 40.36445 -172.75043 33122 ft 554 kts 95°
2026-05-07 18:26 40.35250 -172.65118 33117 ft 554 kts 95°
2026-05-07 18:27 40.34044 -172.55186 33120 ft 554 kts 95°
2026-05-07 18:27 40.32825 -172.45210 33113 ft 556 kts 95°
2026-05-07 18:28 40.31607 -172.35324 33116 ft 554 kts 95°
2026-05-07 18:28 40.30368 -172.25330 33103 ft 555 kts 96°
2026-05-07 18:29 40.29127 -172.15399 33103 ft 555 kts 96°
2026-05-07 18:29 40.27873 -172.05435 33096 ft 556 kts 96°
2026-05-07 18:30 40.26616 -171.95523 33096 ft 556 kts 96°
2026-05-07 18:30 40.25347 -171.85580 33094 ft 556 kts 96°
2026-05-07 18:31 40.24066 -171.75621 33096 ft 556 kts 96°
2026-05-07 18:31 40.22783 -171.65707 33096 ft 557 kts 96°
2026-05-07 18:32 40.21488 -171.55772 33103 ft 555 kts 96°
2026-05-07 18:32 40.20177 -171.45795 33100 ft 556 kts 96°
2026-05-07 18:33 40.18868 -171.35887 33097 ft 558 kts 96°
2026-05-07 18:33 40.17544 -171.25935 33082 ft 558 kts 97°
2026-05-07 18:34 40.16211 -171.15984 33087 ft 559 kts 97°
2026-05-07 18:34 40.14874 -171.06079 33089 ft 556 kts 97°
2026-05-07 18:35 40.13520 -170.96114 33084 ft 556 kts 97°
2026-05-07 18:35 40.12168 -170.86221 33080 ft 558 kts 97°
2026-05-07 18:36 40.10792 -170.76225 33079 ft 559 kts 97°
2026-05-07 18:36 40.09414 -170.66277 33077 ft 558 kts 97°
2026-05-07 18:37 40.08038 -170.56415 33080 ft 557 kts 97°
2026-05-07 18:37 40.06643 -170.46469 33081 ft 557 kts 97°
2026-05-07 18:38 40.05244 -170.36566 33074 ft 559 kts 97°
2026-05-07 18:38 40.03831 -170.26630 33061 ft 556 kts 98°
2026-05-07 18:39 40.02418 -170.16757 33053 ft 557 kts 98°
2026-05-07 18:39 40.00988 -170.06827 33055 ft 559 kts 98°
2026-05-07 18:40 39.99533 -169.96979 33059 ft 557 kts 99°
2026-05-07 18:40 39.98021 -169.87079 33056 ft 559 kts 99°
2026-05-07 18:41 39.96500 -169.77194 33055 ft 558 kts 99°
2026-05-07 18:41 39.94965 -169.67278 33049 ft 558 kts 99°
2026-05-07 18:42 39.93434 -169.57448 33049 ft 559 kts 99°
2026-05-07 18:42 39.91887 -169.47575 33058 ft 556 kts 99°
2026-05-07 18:43 39.90339 -169.37750 33066 ft 557 kts 99°
2026-05-07 18:43 39.88766 -169.27832 33042 ft 557 kts 100°
2026-05-07 18:44 39.87203 -169.18024 33042 ft 558 kts 100°
2026-05-07 18:44 39.85624 -169.08180 33029 ft 558 kts 100°
2026-05-07 18:45 39.84034 -168.98323 33042 ft 557 kts 100°
2026-05-07 18:45 39.82440 -168.88498 33028 ft 560 kts 100°
2026-05-07 18:46 39.80835 -168.78659 33033 ft 557 kts 100°
2026-05-07 18:46 39.79215 -168.68787 33047 ft 557 kts 100°
2026-05-07 18:47 39.77597 -168.58981 33041 ft 558 kts 100°
2026-05-07 18:47 39.75973 -168.49191 33036 ft 558 kts 100°
2026-05-07 18:48 39.74335 -168.39371 33050 ft 557 kts 101°
2026-05-07 18:48 39.72693 -168.29578 33032 ft 559 kts 101°
2026-05-07 18:49 39.71027 -168.19707 33031 ft 557 kts 101°
2026-05-07 18:49 39.69367 -168.09915 33034 ft 557 kts 102°
2026-05-07 18:50 39.67697 -168.00125 33034 ft 558 kts 101°
2026-05-07 18:50 39.66014 -167.90309 33043 ft 558 kts 102°
2026-05-07 18:51 39.64335 -167.80568 33042 ft 557 kts 101°
2026-05-07 18:51 39.62634 -167.70749 33039 ft 558 kts 102°
2026-05-07 18:52 39.60936 -167.61003 33043 ft 557 kts 102°
2026-05-07 18:52 39.59230 -167.51262 33042 ft 557 kts 102°
2026-05-07 18:53 39.57506 -167.41467 33040 ft 557 kts 102°
2026-05-07 18:53 39.55781 -167.31722 33014 ft 557 kts 102°
2026-05-07 18:54 39.54048 -167.21980 33012 ft 557 kts 102°
2026-05-07 18:54 39.52311 -167.12264 33013 ft 557 kts 102°
2026-05-07 18:55 39.50555 -167.02498 33013 ft 557 kts 102°
2026-05-07 18:55 39.48798 -166.92773 33010 ft 558 kts 103°
2026-05-07 18:56 39.47036 -166.83072 33024 ft 556 kts 103°
2026-05-07 18:56 39.45272 -166.73410 33025 ft 557 kts 103°
2026-05-07 18:57 39.43487 -166.63676 33025 ft 556 kts 103°
2026-05-07 18:57 39.41705 -166.54010 33040 ft 554 kts 103°
2026-05-07 18:58 39.39911 -166.44331 33030 ft 557 kts 103°
2026-05-07 18:58 39.38106 -166.34634 33035 ft 556 kts 104°
2026-05-07 18:59 39.36303 -166.25001 33027 ft 553 kts 104°
2026-05-07 18:59 39.34485 -166.15338 33019 ft 556 kts 104°
2026-05-07 19:00 39.32656 -166.05656 33032 ft 554 kts 104°
2026-05-07 19:00 39.30823 -165.96004 33028 ft 554 kts 104°
2026-05-07 19:01 39.28983 -165.86365 33025 ft 556 kts 104°
2026-05-07 19:01 39.27140 -165.76755 33025 ft 554 kts 104°
2026-05-07 19:02 39.25293 -165.67172 33031 ft 554 kts 104°
2026-05-07 19:02 39.23423 -165.57512 33029 ft 554 kts 104°
2026-05-07 19:03 39.21565 -165.47961 33034 ft 553 kts 104°
2026-05-07 19:03 39.19690 -165.38367 33023 ft 554 kts 104°
2026-05-07 19:04 39.17812 -165.28806 33009 ft 553 kts 105°
2026-05-07 19:04 39.15916 -165.19197 33011 ft 552 kts 105°
2026-05-07 19:05 39.14019 -165.09627 33000 ft 553 kts 105°
2026-05-07 19:05 39.12124 -165.00111 33004 ft 552 kts 105°
2026-05-07 19:06 39.10213 -164.90561 33007 ft 551 kts 105°
2026-05-07 19:06 39.07333 -164.76250 33011 ft 551 kts 105°
2026-05-07 19:07 39.05405 -164.66724 33010 ft 553 kts 105°
2026-05-07 19:07 39.03484 -164.57272 33011 ft 552 kts 105°
2026-05-07 19:08 39.01535 -164.47729 33019 ft 552 kts 105°
2026-05-07 19:08 38.99589 -164.38248 33018 ft 552 kts 105°
2026-05-07 19:09 38.97636 -164.28766 33006 ft 552 kts 106°
2026-05-07 19:09 38.95660 -164.19225 32998 ft 551 kts 106°
2026-05-07 19:10 38.93698 -164.09786 33005 ft 551 kts 106°
2026-05-07 19:10 38.91719 -164.00314 33013 ft 551 kts 107°
2026-05-07 19:11 38.89734 -163.90849 33014 ft 551 kts 107°
2026-05-07 19:11 38.87738 -163.81377 33007 ft 553 kts 106°
2026-05-07 19:12 38.85737 -163.71921 33012 ft 552 kts 107°
2026-05-07 19:12 38.83717 -163.62418 33024 ft 551 kts 106°
2026-05-07 19:13 38.81706 -163.52997 33026 ft 550 kts 107°
2026-05-07 19:13 38.79694 -163.43614 33023 ft 551 kts 107°
2026-05-07 19:14 38.77654 -163.34137 33025 ft 549 kts 107°
2026-05-07 19:14 38.75621 -163.24741 33016 ft 550 kts 107°
2026-05-07 19:15 38.73584 -163.15363 33019 ft 550 kts 108°
2026-05-07 19:15 38.71536 -163.05969 33021 ft 549 kts 108°
2026-05-07 19:16 38.69477 -162.96570 33016 ft 550 kts 107°
2026-05-07 19:16 38.67413 -162.87187 33015 ft 550 kts 107°
2026-05-07 19:17 38.65330 -162.77756 33019 ft 549 kts 107°
2026-05-07 19:17 38.63259 -162.68422 33011 ft 548 kts 107°
2026-05-07 19:18 38.61176 -162.59068 33014 ft 550 kts 107°
2026-05-07 19:18 38.59087 -162.49730 32999 ft 549 kts 107°
2026-05-07 19:19 38.56993 -162.40407 33017 ft 548 kts 107°
2026-05-07 19:19 38.54890 -162.31081 32996 ft 548 kts 108°
2026-05-07 19:20 38.52772 -162.21727 32993 ft 549 kts 108°
2026-05-07 19:20 38.50645 -162.12372 32991 ft 549 kts 108°
2026-05-07 19:21 38.48528 -162.03102 32992 ft 548 kts 108°
2026-05-07 19:21 38.46392 -161.93782 32987 ft 548 kts 108°
2026-05-07 19:22 38.44249 -161.84473 32992 ft 547 kts 108°
2026-05-07 19:22 38.42117 -161.75244 32996 ft 546 kts 108°
2026-05-07 19:23 38.39966 -161.65973 32993 ft 546 kts 108°
2026-05-07 19:23 38.37804 -161.56692 32992 ft 546 kts 108°
2026-05-07 19:24 38.35646 -161.47466 33000 ft 546 kts 108°
2026-05-07 19:24 38.33491 -161.38283 33003 ft 546 kts 108°
2026-05-07 19:25 38.31309 -161.29028 32992 ft 545 kts 109°
2026-05-07 19:25 38.29131 -161.19821 32985 ft 545 kts 109°
2026-05-07 19:26 38.26945 -161.10619 32990 ft 544 kts 109°
2026-05-07 19:26 38.24752 -161.01424 33004 ft 544 kts 109°
2026-05-07 19:27 38.22560 -160.92267 32986 ft 544 kts 109°
2026-05-07 19:27 38.20353 -160.83081 32998 ft 545 kts 109°
2026-05-07 19:28 38.18150 -160.73949 32995 ft 544 kts 109°
2026-05-07 19:28 38.15926 -160.64766 32998 ft 544 kts 109°
2026-05-07 19:29 38.13696 -160.55592 32995 ft 545 kts 109°
2026-05-07 19:29 38.11473 -160.46484 32991 ft 544 kts 109°
2026-05-07 19:30 38.09224 -160.37300 32984 ft 544 kts 109°
2026-05-07 19:30 38.06995 -160.28238 32978 ft 543 kts 110°
2026-05-07 19:31 38.04742 -160.19107 32969 ft 542 kts 110°
2026-05-07 19:31 38.02489 -160.10010 32965 ft 540 kts 110°
2026-05-07 19:32 38.00264 -160.00978 32976 ft 541 kts 107°
2026-05-07 19:32 37.99205 -159.91518 32985 ft 546 kts 94°
2026-05-07 19:33 37.98775 -159.81920 32982 ft 547 kts 94°
2026-05-07 19:33 37.98294 -159.72382 32980 ft 546 kts 95°
2026-05-07 19:34 37.97767 -159.62764 32978 ft 548 kts 95°
2026-05-07 19:34 37.97214 -159.53168 32976 ft 547 kts 95°
2026-05-07 19:35 37.96646 -159.43628 32979 ft 547 kts 95°
2026-05-07 19:35 37.96059 -159.34021 32976 ft 547 kts 96°
2026-05-07 19:36 37.95465 -159.24471 32970 ft 547 kts 96°
2026-05-07 19:36 37.94857 -159.14879 32964 ft 546 kts 96°
2026-05-07 19:37 37.94244 -159.05330 32960 ft 546 kts 96°
2026-05-07 19:37 37.93623 -158.95805 32965 ft 547 kts 96°
2026-05-07 19:38 37.92992 -158.86247 32970 ft 546 kts 96°
2026-05-07 19:38 37.92355 -158.76708 32968 ft 546 kts 96°
2026-05-07 19:39 37.91705 -158.67110 32965 ft 547 kts 96°
2026-05-07 19:39 37.91050 -158.57558 32970 ft 547 kts 96°
2026-05-07 19:40 37.90390 -158.48032 32971 ft 546 kts 96°
2026-05-07 19:40 37.89718 -158.38452 32962 ft 545 kts 96°
2026-05-07 19:41 37.89044 -158.28957 32958 ft 546 kts 97°
2026-05-07 19:41 37.88358 -158.19403 32951 ft 546 kts 97°
2026-05-07 19:42 37.87665 -158.09856 32956 ft 546 kts 97°
2026-05-07 19:42 37.86964 -158.00314 32954 ft 546 kts 97°
2026-05-07 19:43 37.86257 -157.90796 32950 ft 548 kts 97°
2026-05-07 19:43 37.85540 -157.81253 32941 ft 548 kts 97°
2026-05-07 19:44 37.84814 -157.71681 32950 ft 548 kts 97°
2026-05-07 19:44 37.84079 -157.62097 32959 ft 548 kts 97°
2026-05-07 19:45 37.83336 -157.52525 32964 ft 549 kts 97°
2026-05-07 19:45 37.82587 -157.42960 32964 ft 547 kts 97°
2026-05-07 19:46 37.81831 -157.33418 32953 ft 548 kts 98°
2026-05-07 19:46 37.81066 -157.23865 32950 ft 549 kts 98°
2026-05-07 19:47 37.80296 -157.14331 32956 ft 548 kts 98°
2026-05-07 19:47 37.79516 -157.04791 32938 ft 547 kts 98°
2026-05-07 19:48 37.78727 -156.95226 32961 ft 549 kts 98°
2026-05-07 19:48 37.77929 -156.85646 32955 ft 549 kts 98°
2026-05-07 19:49 37.77124 -156.76090 32968 ft 550 kts 98°
2026-05-07 19:49 37.76311 -156.66524 32965 ft 550 kts 98°
2026-05-07 19:50 37.75489 -156.56940 32961 ft 550 kts 98°
2026-05-07 19:50 37.74659 -156.47351 32962 ft 550 kts 98°
2026-05-07 19:51 37.73821 -156.37779 32976 ft 551 kts 98°
2026-05-07 19:51 37.72976 -156.28206 32947 ft 550 kts 98°
2026-05-07 19:52 37.72118 -156.18581 32950 ft 550 kts 99°
2026-05-07 19:52 37.71256 -156.09001 32971 ft 551 kts 99°
2026-05-07 19:53 37.70392 -155.99475 32963 ft 552 kts 99°
2026-05-07 19:53 37.69508 -155.89839 32968 ft 553 kts 99°
2026-05-07 19:54 37.68620 -155.80232 32976 ft 554 kts 99°
2026-05-07 19:54 37.67725 -155.70630 32965 ft 554 kts 99°
2026-05-07 19:55 37.66822 -155.61037 32974 ft 553 kts 99°
2026-05-07 19:55 37.65904 -155.51370 32962 ft 554 kts 99°
2026-05-07 19:56 37.64988 -155.41806 32985 ft 555 kts 99°
2026-05-07 19:56 37.64056 -155.32159 32960 ft 554 kts 99°
2026-05-07 19:57 37.63112 -155.22482 32968 ft 556 kts 99°
2026-05-07 19:57 37.62168 -155.12880 32970 ft 556 kts 99°
2026-05-07 19:58 37.61209 -155.03206 32956 ft 556 kts 99°
2026-05-07 19:58 37.60246 -154.93568 32943 ft 557 kts 100°
2026-05-07 19:59 37.59269 -154.83885 32958 ft 558 kts 100°
2026-05-07 19:59 37.58287 -154.74226 32963 ft 558 kts 99°
2026-05-07 20:00 37.57298 -154.64574 32965 ft 559 kts 99°
2026-05-07 20:00 37.56298 -154.54901 32962 ft 558 kts 100°
2026-05-07 20:01 37.55291 -154.45238 32974 ft 559 kts 99°
2026-05-07 20:01 37.54268 -154.35494 32954 ft 559 kts 99°
2026-05-07 20:02 37.53244 -154.25824 32954 ft 559 kts 100°
2026-05-07 20:02 37.52211 -154.16144 32958 ft 561 kts 101°
2026-05-07 20:03 37.51168 -154.06450 32973 ft 562 kts 101°
2026-05-07 20:03 37.50120 -153.96783 32963 ft 562 kts 101°
2026-05-07 20:04 37.49052 -153.87013 32966 ft 561 kts 101°
2026-05-07 20:04 37.47982 -153.77300 32961 ft 563 kts 100°
2026-05-07 20:05 37.46908 -153.67618 32967 ft 563 kts 101°
2026-05-07 20:05 37.45816 -153.57852 32967 ft 565 kts 101°
2026-05-07 20:06 37.44718 -153.48112 32967 ft 567 kts 101°
2026-05-07 20:06 37.43604 -153.38297 32983 ft 565 kts 101°
2026-05-07 20:07 37.42489 -153.28552 32945 ft 565 kts 101°
2026-05-07 20:07 37.41365 -153.18803 32953 ft 567 kts 101°
2026-05-07 20:08 37.40231 -153.09032 32952 ft 567 kts 102°
2026-05-07 20:08 37.39084 -152.99231 32962 ft 568 kts 102°
2026-05-07 20:09 37.37933 -152.89461 32971 ft 569 kts 102°
2026-05-07 20:10 37.36180 -152.74724 32973 ft 572 kts 101°
2026-05-07 20:10 37.34996 -152.64848 32966 ft 570 kts 101°
2026-05-07 20:11 37.33810 -152.55035 32965 ft 573 kts 101°
2026-05-07 20:11 37.32611 -152.45183 32972 ft 571 kts 102°
2026-05-07 20:12 37.31408 -152.35378 32964 ft 574 kts 102°
2026-05-07 20:12 37.30189 -152.25497 32940 ft 571 kts 102°
2026-05-07 20:13 37.28956 -152.15582 32950 ft 576 kts 102°
2026-05-07 20:13 37.27723 -152.05730 32962 ft 574 kts 103°
2026-05-07 20:14 37.26477 -151.95854 32958 ft 578 kts 102°
2026-05-07 20:14 37.25217 -151.85922 32982 ft 575 kts 103°
2026-05-07 20:15 37.23951 -151.76024 32977 ft 577 kts 103°
2026-05-07 20:15 37.22677 -151.66126 32980 ft 578 kts 103°
2026-05-07 20:16 37.21394 -151.56220 32969 ft 578 kts 103°
2026-05-07 20:16 37.20102 -151.46318 32976 ft 578 kts 103°
2026-05-07 20:17 37.18798 -151.36389 32992 ft 580 kts 103°
2026-05-07 20:17 37.17484 -151.26443 32968 ft 579 kts 103°
2026-05-07 20:18 37.16157 -151.16487 32965 ft 581 kts 103°
2026-05-07 20:18 37.14823 -151.06522 32952 ft 583 kts 103°
2026-05-07 20:19 37.13481 -150.96574 32952 ft 581 kts 103°
2026-05-07 20:19 37.12125 -150.86585 32972 ft 583 kts 103°
2026-05-07 20:20 37.10764 -150.76617 32962 ft 581 kts 104°
2026-05-07 20:20 37.09388 -150.66615 32977 ft 583 kts 103°
2026-05-07 20:21 37.08012 -150.56679 32975 ft 584 kts 104°
2026-05-07 20:21 37.06620 -150.46681 32981 ft 585 kts 103°
2026-05-07 20:22 37.05214 -150.36655 32985 ft 585 kts 103°
2026-05-07 20:22 37.03806 -150.26677 32952 ft 586 kts 104°
2026-05-07 20:23 37.02390 -150.16702 32955 ft 585 kts 104°
2026-05-07 20:23 37.00964 -150.06717 32961 ft 586 kts 104°
2026-05-07 20:24 36.99882 -149.96643 32961 ft 591 kts 94°
2026-05-07 20:24 37.00275 -149.86305 32961 ft 594 kts 87°
2026-05-07 20:25 37.00805 -149.76086 32966 ft 594 kts 88°
2026-05-07 20:25 37.01285 -149.65779 32963 ft 596 kts 89°
2026-05-07 20:26 37.01726 -149.55479 32970 ft 596 kts 88°
2026-05-07 20:26 37.02143 -149.45122 32985 ft 596 kts 88°
2026-05-07 20:27 37.02541 -149.34760 32980 ft 599 kts 89°
2026-05-07 20:27 37.02925 -149.24364 32958 ft 599 kts 89°
2026-05-07 20:28 37.03296 -149.14012 32963 ft 600 kts 89°
2026-05-07 20:28 37.03656 -149.03619 32953 ft 600 kts 89°
2026-05-07 20:29 37.04007 -148.93175 32968 ft 602 kts 89°
2026-05-07 20:29 37.04347 -148.82793 32971 ft 600 kts 89°
2026-05-07 20:30 37.04679 -148.72350 32959 ft 602 kts 89°
2026-05-07 20:30 37.05001 -148.61949 32975 ft 601 kts 89°
2026-05-07 20:31 37.05313 -148.51540 32978 ft 601 kts 89°
2026-05-07 20:31 37.05618 -148.41071 32981 ft 601 kts 90°
2026-05-07 20:32 37.05911 -148.30664 32967 ft 601 kts 90°
2026-05-07 20:32 37.06195 -148.20279 32969 ft 602 kts 90°
2026-05-07 20:33 37.06472 -148.09833 32973 ft 601 kts 90°
2026-05-07 20:33 37.06740 -147.99393 32981 ft 600 kts 90°
2026-05-07 20:34 37.06997 -147.88963 32978 ft 601 kts 90°
2026-05-07 20:34 37.07246 -147.78534 32987 ft 603 kts 90°
2026-05-07 20:35 37.07486 -147.68086 32995 ft 602 kts 90°
2026-05-07 20:35 37.07716 -147.57669 32995 ft 602 kts 90°
2026-05-07 20:36 37.07938 -147.47201 32997 ft 602 kts 90°
2026-05-07 20:36 37.08149 -147.36798 33000 ft 601 kts 90°
2026-05-07 20:37 37.08352 -147.26355 32988 ft 601 kts 91°
2026-05-07 20:37 37.08546 -147.15948 32984 ft 601 kts 91°
2026-05-07 20:38 37.08730 -147.05516 32994 ft 603 kts 91°
2026-05-07 20:38 37.08906 -146.95094 32996 ft 602 kts 91°
2026-05-07 20:39 37.09072 -146.84625 33006 ft 601 kts 91°
2026-05-07 20:39 37.09230 -146.74185 33005 ft 600 kts 91°
2026-05-07 20:40 37.09377 -146.63820 33003 ft 598 kts 91°
2026-05-07 20:40 37.09515 -146.53430 33009 ft 601 kts 91°
2026-05-07 20:41 37.09646 -146.42978 33009 ft 599 kts 91°
2026-05-07 20:41 37.09766 -146.32594 32999 ft 599 kts 92°
2026-05-07 20:42 37.09877 -146.22237 32995 ft 598 kts 92°
2026-05-07 20:42 37.09978 -146.11862 32993 ft 599 kts 92°
2026-05-07 20:43 37.10072 -146.01427 33001 ft 597 kts 92°
2026-05-07 20:43 37.10156 -145.91064 32999 ft 597 kts 92°
2026-05-07 20:44 37.10230 -145.80733 33005 ft 597 kts 92°
2026-05-07 20:44 37.10296 -145.70398 33007 ft 597 kts 92°
2026-05-07 20:45 37.10353 -145.59985 33009 ft 596 kts 92°
2026-05-07 20:45 37.10400 -145.49615 33014 ft 598 kts 92°
2026-05-07 20:46 37.10439 -145.39300 33014 ft 598 kts 92°
2026-05-07 20:46 37.10469 -145.28941 32998 ft 595 kts 93°
2026-05-07 20:47 37.10490 -145.18617 32999 ft 596 kts 93°
2026-05-07 20:47 37.10502 -145.08281 33000 ft 595 kts 93°
2026-05-07 20:48 37.10504 -144.97945 32996 ft 595 kts 93°
2026-05-07 20:48 37.10498 -144.87627 33003 ft 595 kts 94°
2026-05-07 20:49 37.10482 -144.77307 33007 ft 594 kts 93°
2026-05-07 20:49 37.10458 -144.66977 33014 ft 594 kts 94°
2026-05-07 20:50 37.10425 -144.56673 33014 ft 594 kts 94°
2026-05-07 20:50 37.10383 -144.46329 33018 ft 594 kts 93°
2026-05-07 20:51 37.10332 -144.36012 33028 ft 594 kts 93°
2026-05-07 20:51 37.10273 -144.25734 33012 ft 592 kts 94°
2026-05-07 20:52 37.10204 -144.15477 33009 ft 592 kts 94°
2026-05-07 20:52 37.10126 -144.05180 33011 ft 593 kts 94°
2026-05-07 20:53 37.10040 -143.94862 33020 ft 593 kts 94°
2026-05-07 20:53 37.09945 -143.84631 33021 ft 594 kts 94°
2026-05-07 20:54 37.09841 -143.74300 33029 ft 593 kts 94°
2026-05-07 20:54 37.09728 -143.64020 33029 ft 594 kts 94°
2026-05-07 20:55 37.09605 -143.53743 33034 ft 593 kts 94°
2026-05-07 20:55 37.09476 -143.43515 33031 ft 591 kts 94°
2026-05-07 20:56 37.09336 -143.33231 33028 ft 591 kts 95°
2026-05-07 20:56 37.09189 -143.22994 33015 ft 590 kts 95°
2026-05-07 20:57 37.09032 -143.12796 33015 ft 590 kts 95°
2026-05-07 20:57 37.08868 -143.02573 33019 ft 590 kts 95°
2026-05-07 20:58 37.08694 -142.92345 33024 ft 589 kts 95°
2026-05-07 20:58 37.08511 -142.82123 33032 ft 589 kts 95°
2026-05-07 20:59 37.08320 -142.71951 33032 ft 588 kts 95°
2026-05-07 20:59 37.08121 -142.61748 33033 ft 586 kts 95°
2026-05-07 21:00 37.07912 -142.51572 33049 ft 586 kts 95°
2026-05-07 21:00 37.07697 -142.41429 33059 ft 586 kts 95°
2026-05-07 21:01 37.07470 -142.31221 33047 ft 586 kts 96°
2026-05-07 21:01 37.07237 -142.21083 33051 ft 584 kts 96°
2026-05-07 21:02 37.06997 -142.10985 33056 ft 584 kts 96°
2026-05-07 21:02 37.06745 -142.00822 33060 ft 585 kts 96°
2026-05-07 21:03 37.06487 -141.90729 33060 ft 584 kts 96°
2026-05-07 21:03 37.06218 -141.80565 33064 ft 584 kts 96°
2026-05-07 21:04 37.05943 -141.70453 33068 ft 582 kts 96°
2026-05-07 21:04 37.05660 -141.60393 33073 ft 581 kts 96°
2026-05-07 21:05 37.05367 -141.50256 33075 ft 581 kts 96°
2026-05-07 21:05 37.05067 -141.40210 33079 ft 580 kts 96°
2026-05-07 21:06 37.04760 -141.30190 33064 ft 579 kts 97°
2026-05-07 21:06 37.04445 -141.20180 33056 ft 579 kts 97°
2026-05-07 21:07 37.04121 -141.10191 33060 ft 577 kts 97°
2026-05-07 21:07 37.03795 -141.00349 33048 ft 575 kts 96°
2026-05-07 21:08 37.03457 -140.90410 33051 ft 574 kts 97°
2026-05-07 21:08 37.03111 -140.80481 33052 ft 575 kts 96°
2026-05-07 21:09 37.02756 -140.70534 33058 ft 572 kts 96°
2026-05-07 21:09 37.02391 -140.60556 33063 ft 573 kts 97°
2026-05-07 21:10 37.02020 -140.50621 33065 ft 573 kts 96°
2026-05-07 21:10 37.01643 -140.40730 33070 ft 569 kts 97°
2026-05-07 21:11 37.01260 -140.30907 33056 ft 567 kts 97°
2026-05-07 21:11 37.00667 -140.16133 33059 ft 569 kts 97°
2026-05-07 21:12 37.00265 -140.06345 33063 ft 568 kts 97°
2026-05-07 21:12 37.00196 -139.96484 33052 ft 571 kts 86°
2026-05-07 21:13 37.01451 -139.86662 33073 ft 573 kts 82°
2026-05-07 21:13 37.02761 -139.76950 33066 ft 570 kts 83°
2026-05-07 21:14 37.04034 -139.67174 33072 ft 570 kts 83°
2026-05-07 21:14 37.05267 -139.57449 33070 ft 568 kts 83°
2026-05-07 21:15 37.06484 -139.47687 33074 ft 566 kts 83°
2026-05-07 21:15 37.07671 -139.38016 33074 ft 565 kts 83°
2026-05-07 21:16 37.08850 -139.28319 33060 ft 563 kts 84°
2026-05-07 21:16 37.10019 -139.18608 33064 ft 564 kts 84°
2026-05-07 21:17 37.11168 -139.08980 33066 ft 564 kts 84°
2026-05-07 21:17 37.12313 -138.99318 33064 ft 563 kts 84°
2026-05-07 21:18 37.13448 -138.89656 33063 ft 563 kts 84°
2026-05-07 21:18 37.14577 -138.79985 33067 ft 560 kts 84°
2026-05-07 21:19 37.15693 -138.70346 33067 ft 558 kts 84°
2026-05-07 21:19 37.16790 -138.60806 33068 ft 557 kts 84°
2026-05-07 21:20 37.17886 -138.51195 33069 ft 557 kts 84°
2026-05-07 21:20 37.18972 -138.41609 33072 ft 556 kts 84°
2026-05-07 21:21 37.20048 -138.32044 33057 ft 554 kts 85°
2026-05-07 21:21 37.21113 -138.22498 33058 ft 554 kts 85°
2026-05-07 21:22 37.22164 -138.13008 33061 ft 555 kts 85°
2026-05-07 21:22 37.23219 -138.03406 33055 ft 553 kts 85°
2026-05-07 21:23 37.24258 -137.93884 33063 ft 552 kts 85°
2026-05-07 21:23 37.25290 -137.84349 33065 ft 551 kts 85°
2026-05-07 21:24 37.26307 -137.74887 33075 ft 550 kts 85°
2026-05-07 21:24 37.27315 -137.65431 33075 ft 549 kts 85°
2026-05-07 21:25 37.28321 -137.55924 33082 ft 549 kts 85°
2026-05-07 21:25 37.29311 -137.46487 33089 ft 549 kts 85°
2026-05-07 21:26 37.30301 -137.36983 33089 ft 548 kts 85°
2026-05-07 21:26 37.31279 -137.27519 33082 ft 545 kts 86°
2026-05-07 21:27 37.32246 -137.18074 33084 ft 547 kts 85°
2026-05-07 21:27 37.33201 -137.08682 33093 ft 545 kts 85°
2026-05-07 21:28 37.34155 -136.99226 33092 ft 547 kts 85°
2026-05-07 21:28 37.35093 -136.89850 33099 ft 544 kts 85°
2026-05-07 21:29 37.36026 -136.80443 33111 ft 545 kts 85°
2026-05-07 21:29 37.36957 -136.70976 33111 ft 545 kts 85°
2026-05-07 21:30 37.37873 -136.61597 33116 ft 542 kts 86°
2026-05-07 21:30 37.38783 -136.52187 33119 ft 544 kts 86°
2026-05-07 21:31 37.39685 -136.42787 33124 ft 542 kts 85°
2026-05-07 21:31 37.40574 -136.33438 33146 ft 543 kts 86°
2026-05-07 21:32 37.41021 -136.28713 33267 ft 539 kts 86°
2026-05-07 21:32 37.41460 -136.24066 33388 ft 533 kts 86°
2026-05-07 21:32 37.41887 -136.19508 33523 ft 530 kts 86°
2026-05-07 21:32 37.42317 -136.14902 33663 ft 528 kts 86°
2026-05-07 21:33 37.42739 -136.10362 33801 ft 528 kts 86°
2026-05-07 21:33 37.43163 -136.05771 33943 ft 527 kts 86°
2026-05-07 21:33 37.43584 -136.01195 34088 ft 528 kts 86°
2026-05-07 21:33 37.44002 -135.96639 34231 ft 527 kts 86°
2026-05-07 21:34 37.44418 -135.92084 34373 ft 527 kts 86°
2026-05-07 21:34 37.44835 -135.87500 34518 ft 527 kts 86°
2026-05-07 21:34 37.45245 -135.82974 34662 ft 525 kts 86°
2026-05-07 21:34 37.45657 -135.78407 34808 ft 526 kts 86°
2026-05-07 21:35 37.46064 -135.73862 34954 ft 525 kts 86°
2026-05-07 21:35 37.46472 -135.69304 35103 ft 526 kts 85°
2026-05-07 21:35 37.47282 -135.60175 35148 ft 526 kts 85°
2026-05-07 21:36 37.48088 -135.51018 35154 ft 529 kts 85°
2026-05-07 21:36 37.48888 -135.41847 35158 ft 527 kts 85°
2026-05-07 21:37 37.49673 -135.32767 35151 ft 526 kts 86°
2026-05-07 21:37 37.50456 -135.23625 35152 ft 526 kts 86°
2026-05-07 21:38 37.51230 -135.14491 35156 ft 527 kts 86°
2026-05-07 21:38 37.51996 -135.05383 35161 ft 526 kts 86°
2026-05-07 21:39 37.52758 -134.96230 35168 ft 524 kts 86°
2026-05-07 21:39 37.53509 -134.87129 35171 ft 524 kts 86°
2026-05-07 21:40 37.54248 -134.78079 35173 ft 524 kts 86°
2026-05-07 21:40 37.54984 -134.68990 35172 ft 523 kts 86°
2026-05-07 21:41 37.55714 -134.59878 35173 ft 521 kts 86°
2026-05-07 21:41 37.56431 -134.50850 35181 ft 522 kts 86°
2026-05-07 21:42 37.57148 -134.41722 35185 ft 522 kts 86°
2026-05-07 21:42 37.57850 -134.32700 35180 ft 519 kts 86°
2026-05-07 21:43 37.58544 -134.23689 35182 ft 520 kts 86°
2026-05-07 21:43 37.59236 -134.14618 35180 ft 521 kts 86°
2026-05-07 21:44 37.59919 -134.05565 35183 ft 519 kts 86°
2026-05-07 21:44 37.60591 -133.96562 35183 ft 518 kts 86°
2026-05-07 21:45 37.61258 -133.87541 35183 ft 517 kts 86°
2026-05-07 21:45 37.61919 -133.78511 35189 ft 518 kts 86°
2026-05-07 21:46 37.62567 -133.69548 35195 ft 519 kts 86°
2026-05-07 21:46 37.63213 -133.60522 35196 ft 518 kts 86°
2026-05-07 21:47 37.63853 -133.51486 35199 ft 517 kts 86°
2026-05-07 21:47 37.64482 -133.42513 35202 ft 517 kts 86°
2026-05-07 21:48 37.65109 -133.33473 35197 ft 517 kts 87°
2026-05-07 21:48 37.65723 -133.24501 35195 ft 516 kts 86°
2026-05-07 21:49 37.66331 -133.15529 35204 ft 516 kts 86°
2026-05-07 21:49 37.66933 -133.06535 35205 ft 514 kts 86°
2026-05-07 21:50 37.67527 -132.97566 35213 ft 514 kts 86°
2026-05-07 21:50 37.68114 -132.88592 35210 ft 513 kts 86°
2026-05-07 21:51 37.68693 -132.79637 35215 ft 515 kts 86°
2026-05-07 21:51 37.69264 -132.70715 35218 ft 513 kts 86°
2026-05-07 21:52 37.69828 -132.61765 35229 ft 513 kts 86°
2026-05-07 21:52 37.70387 -132.52818 35233 ft 513 kts 86°
2026-05-07 21:53 37.70940 -132.43832 35233 ft 513 kts 86°
2026-05-07 21:53 37.71483 -132.34915 35234 ft 511 kts 87°
2026-05-07 21:54 37.72019 -132.25989 35231 ft 511 kts 86°
2026-05-07 21:54 37.72548 -132.17067 35232 ft 511 kts 86°
2026-05-07 21:55 37.73068 -132.08192 35234 ft 510 kts 86°
2026-05-07 21:55 37.73586 -131.99236 35234 ft 509 kts 86°
2026-05-07 21:56 37.74091 -131.90376 35239 ft 510 kts 86°
2026-05-07 21:56 37.74594 -131.81441 35235 ft 509 kts 86°
2026-05-07 21:57 37.75088 -131.72539 35238 ft 510 kts 86°
2026-05-07 21:57 37.75573 -131.63673 35242 ft 510 kts 86°
2026-05-07 21:58 37.76057 -131.54724 35231 ft 509 kts 86°
2026-05-07 21:58 37.76529 -131.45851 35239 ft 508 kts 86°
2026-05-07 21:59 37.76994 -131.36986 35233 ft 507 kts 86°
2026-05-07 21:59 37.77451 -131.28148 35233 ft 508 kts 86°
2026-05-07 22:00 37.77905 -131.19246 35235 ft 507 kts 86°
2026-05-07 22:00 37.78349 -131.10403 35238 ft 506 kts 86°
2026-05-07 22:01 37.78786 -131.01561 35241 ft 506 kts 86°
2026-05-07 22:01 37.79217 -130.92719 35242 ft 505 kts 86°
2026-05-07 22:02 37.79641 -130.83891 35239 ft 506 kts 86°
2026-05-07 22:02 37.80059 -130.75032 35242 ft 506 kts 86°
2026-05-07 22:03 37.80471 -130.66157 35244 ft 507 kts 86°
2026-05-07 22:03 37.80875 -130.57307 35241 ft 505 kts 86°
2026-05-07 22:04 37.81271 -130.48492 35244 ft 507 kts 85°
2026-05-07 22:04 37.81665 -130.39590 35243 ft 505 kts 85°
2026-05-07 22:05 37.82047 -130.30792 35235 ft 506 kts 86°
2026-05-07 22:05 37.82426 -130.21905 35237 ft 506 kts 86°
2026-05-07 22:06 37.82795 -130.13110 35235 ft 504 kts 86°
2026-05-07 22:06 37.83158 -130.04275 35230 ft 506 kts 86°
2026-05-07 22:07 37.82739 -129.95404 35241 ft 508 kts 95°
2026-05-07 22:07 37.81952 -129.86536 35240 ft 507 kts 96°
2026-05-07 22:08 37.81134 -129.77768 35241 ft 506 kts 96°
2026-05-07 22:08 37.80291 -129.68968 35243 ft 505 kts 96°
2026-05-07 22:09 37.79432 -129.60178 35239 ft 505 kts 96°
2026-05-07 22:09 37.78565 -129.51419 35243 ft 505 kts 96°
2026-05-07 22:10 37.77686 -129.42639 35239 ft 504 kts 95°
2026-05-07 22:10 37.76799 -129.33859 35239 ft 503 kts 96°
2026-05-07 22:11 37.75910 -129.25130 35234 ft 504 kts 96°
2026-05-07 22:11 37.75013 -129.16400 35236 ft 504 kts 96°
2026-05-07 22:12 37.74103 -129.07611 35235 ft 504 kts 96°
2026-05-07 22:12 37.73189 -128.98845 35234 ft 505 kts 96°
2026-05-07 22:13 37.72272 -128.90112 35234 ft 502 kts 96°
2026-05-07 22:13 37.71355 -128.81451 35233 ft 502 kts 96°
2026-05-07 22:14 37.70428 -128.72757 35232 ft 502 kts 95°
2026-05-07 22:14 37.69488 -128.63997 35237 ft 502 kts 95°
2026-05-07 22:15 37.68546 -128.55281 35237 ft 502 kts 95°
2026-05-07 22:15 37.67599 -128.46582 35237 ft 502 kts 95°
2026-05-07 22:16 37.66647 -128.37900 35236 ft 502 kts 95°
2026-05-07 22:16 37.65687 -128.29210 35233 ft 502 kts 96°
2026-05-07 22:17 37.64725 -128.20550 35233 ft 501 kts 96°
2026-05-07 22:17 37.63753 -128.11874 35234 ft 501 kts 96°
2026-05-07 22:18 37.62286 -127.98872 35234 ft 501 kts 95°
2026-05-07 22:19 37.61293 -127.90149 35235 ft 501 kts 95°
2026-05-07 22:19 37.60283 -127.81318 35232 ft 517 kts 95°
2026-05-07 22:20 37.59238 -127.72260 35224 ft 531 kts 95°
2026-05-07 22:20 37.58173 -127.63103 35219 ft 529 kts 95°
2026-05-07 22:21 37.57102 -127.53953 35220 ft 529 kts 95°
2026-05-07 22:21 37.56021 -127.44783 35219 ft 529 kts 95°
2026-05-07 22:22 37.54940 -127.35671 35215 ft 529 kts 95°
2026-05-07 22:22 37.53851 -127.26547 35206 ft 528 kts 96°
2026-05-07 22:23 37.52755 -127.17434 35207 ft 528 kts 96°
2026-05-07 22:23 37.51651 -127.08311 35213 ft 527 kts 96°
2026-05-07 22:24 37.50546 -126.99246 35212 ft 526 kts 95°
2026-05-07 22:24 37.50039 -126.90094 35213 ft 524 kts 89°
2026-05-07 22:25 37.49715 -126.80997 35206 ft 524 kts 89°
2026-05-07 22:25 37.49350 -126.71828 35205 ft 524 kts 90°
2026-05-07 22:26 37.48961 -126.62705 35204 ft 525 kts 90°
2026-05-07 22:26 37.48555 -126.53592 35197 ft 523 kts 89°
2026-05-07 22:27 37.48135 -126.44464 35196 ft 524 kts 89°
2026-05-07 22:27 37.47706 -126.35357 35192 ft 524 kts 89°
2026-05-07 22:28 37.47265 -126.26208 35034 ft 526 kts 90°
2026-05-07 22:28 37.47042 -126.21630 34807 ft 526 kts 90°
2026-05-07 22:28 37.46816 -126.17042 34580 ft 526 kts 90°
2026-05-07 22:28 37.46587 -126.12437 34351 ft 527 kts 90°
2026-05-07 22:29 37.46357 -126.07835 34124 ft 528 kts 90°
2026-05-07 22:29 37.46127 -126.03280 33898 ft 528 kts 90°
2026-05-07 22:29 37.45892 -125.98659 33680 ft 528 kts 90°
2026-05-07 22:29 37.45655 -125.94059 33474 ft 524 kts 90°
2026-05-07 22:30 37.45422 -125.89560 33274 ft 522 kts 91°
2026-05-07 22:30 37.45186 -125.85036 33072 ft 519 kts 91°
2026-05-07 22:30 37.44947 -125.80481 32867 ft 517 kts 91°
2026-05-07 22:30 37.44711 -125.76024 32666 ft 516 kts 91°
2026-05-07 22:31 37.44472 -125.71527 32463 ft 514 kts 91°
2026-05-07 22:31 37.44234 -125.67081 32265 ft 514 kts 91°
2026-05-07 22:31 37.43990 -125.62553 32067 ft 518 kts 91°
2026-05-07 22:31 37.43747 -125.58079 31868 ft 517 kts 91°
2026-05-07 22:32 37.43500 -125.53579 31668 ft 514 kts 91°
2026-05-07 22:32 37.43253 -125.49113 31470 ft 512 kts 92°
2026-05-07 22:32 37.43005 -125.44646 31264 ft 510 kts 92°
2026-05-07 22:33 37.42509 -125.35807 31178 ft 509 kts 92°
2026-05-07 22:33 37.42001 -125.26849 31177 ft 514 kts 93°
2026-05-07 22:33 37.41745 -125.22406 31172 ft 503 kts 93°
2026-05-07 22:34 37.41494 -125.18072 31179 ft 499 kts 93°
2026-05-07 22:34 37.40988 -125.09404 31180 ft 499 kts 93°
2026-05-07 22:35 37.40475 -125.00713 31179 ft 499 kts 93°
2026-05-07 22:35 37.39958 -124.92076 31173 ft 498 kts 93°
2026-05-07 22:36 37.39433 -124.83404 31172 ft 498 kts 93°
2026-05-07 22:36 37.38906 -124.74813 31163 ft 497 kts 93°
2026-05-07 22:37 37.38368 -124.66148 31157 ft 498 kts 94°
2026-05-07 22:37 37.37823 -124.57461 31155 ft 498 kts 94°
2026-05-07 22:38 37.37276 -124.48850 31152 ft 498 kts 94°
2026-05-07 22:38 37.36721 -124.40213 31155 ft 497 kts 94°
2026-05-07 22:39 37.36155 -124.31512 31146 ft 496 kts 95°
2026-05-07 22:39 37.35590 -124.22915 31141 ft 495 kts 95°
2026-05-07 22:40 37.35017 -124.14286 31137 ft 494 kts 95°
2026-05-07 22:40 37.34438 -124.05671 31137 ft 495 kts 95°
2026-05-07 22:41 37.33857 -123.97132 31132 ft 495 kts 95°
2026-05-07 22:41 37.33270 -123.88569 31129 ft 495 kts 95°
2026-05-07 22:42 37.32672 -123.79967 31129 ft 495 kts 95°
2026-05-07 22:42 37.32069 -123.71368 31131 ft 495 kts 95°
2026-05-07 22:43 37.31464 -123.62824 31129 ft 494 kts 95°
2026-05-07 22:43 37.30849 -123.54244 31130 ft 493 kts 95°
2026-05-07 22:44 37.30229 -123.45668 31128 ft 494 kts 95°
2026-05-07 22:44 37.29606 -123.37148 31126 ft 494 kts 95°
2026-05-07 22:45 37.28963 -123.28439 31123 ft 494 kts 95°
2026-05-07 22:45 37.28324 -123.19855 31123 ft 494 kts 95°
2026-05-07 22:46 37.27679 -123.11298 31127 ft 493 kts 95°
2026-05-07 22:46 37.27027 -123.02721 31130 ft 494 kts 95°
2026-05-07 22:47 37.26372 -122.94224 31121 ft 493 kts 96°
2026-05-07 22:47 37.24631 -122.85962 31111 ft 492 kts 114°
2026-05-07 22:48 37.21184 -122.78576 31102 ft 494 kts 123°
2026-05-07 22:48 37.17339 -122.71439 31099 ft 493 kts 124°
2026-05-07 22:49 37.13452 -122.64347 31104 ft 494 kts 124°
2026-05-07 22:49 37.09564 -122.57321 31101 ft 493 kts 124°
2026-05-07 22:50 37.05648 -122.50290 31092 ft 494 kts 124°
2026-05-07 22:50 37.01718 -122.43265 31082 ft 494 kts 124°
2026-05-07 22:51 36.97772 -122.36234 31079 ft 492 kts 124°
2026-05-07 22:51 36.93764 -122.29115 31080 ft 492 kts 125°
2026-05-07 22:52 36.89845 -122.22168 31078 ft 493 kts 125°
2026-05-07 22:52 36.85862 -122.15126 31071 ft 492 kts 125°
2026-05-07 22:53 36.81919 -122.08170 31063 ft 492 kts 125°
2026-05-07 22:53 36.77957 -122.01193 31073 ft 493 kts 125°
2026-05-07 22:54 36.74005 -121.94252 31076 ft 492 kts 125°
2026-05-07 22:54 36.70011 -121.87249 31080 ft 493 kts 124°
2026-05-07 22:55 36.66040 -121.80300 31080 ft 492 kts 124°
2026-05-07 22:55 36.62062 -121.73355 31068 ft 491 kts 124°
2026-05-07 22:56 36.58105 -121.66460 31070 ft 491 kts 124°
2026-05-07 22:56 36.54115 -121.59521 31070 ft 490 kts 124°
2026-05-07 22:57 36.50140 -121.52622 31058 ft 491 kts 124°
2026-05-07 22:57 36.46155 -121.45722 31056 ft 490 kts 124°
2026-05-07 22:58 36.42191 -121.38869 31056 ft 488 kts 124°
2026-05-07 22:58 36.38161 -121.31920 31070 ft 488 kts 125°
2026-05-07 22:59 36.34173 -121.25053 31074 ft 488 kts 125°
2026-05-07 22:59 36.30194 -121.18218 31071 ft 488 kts 125°
2026-05-07 23:00 36.26211 -121.11389 31057 ft 487 kts 125°
2026-05-07 23:00 36.22219 -121.04558 31032 ft 486 kts 125°
2026-05-07 23:01 36.18261 -120.97798 31032 ft 486 kts 125°
2026-05-07 23:01 36.14268 -120.90993 31037 ft 486 kts 125°
2026-05-07 23:02 36.10278 -120.84207 31044 ft 486 kts 125°
2026-05-07 23:02 36.06288 -120.77432 31051 ft 487 kts 125°
2026-05-07 23:03 36.02288 -120.70656 31053 ft 486 kts 125°
2026-05-07 23:03 35.98293 -120.63900 31068 ft 486 kts 125°
2026-05-07 23:04 35.94314 -120.57185 31073 ft 487 kts 125°
2026-05-07 23:04 35.90282 -120.50394 31085 ft 488 kts 125°
2026-05-07 23:05 35.86265 -120.43641 31071 ft 486 kts 125°
2026-05-07 23:05 35.82253 -120.36910 31053 ft 487 kts 125°
2026-05-07 23:06 35.78202 -120.30125 31052 ft 488 kts 125°
2026-05-07 23:06 35.74178 -120.23399 31048 ft 488 kts 125°
2026-05-07 23:07 35.70120 -120.16632 31044 ft 489 kts 125°
2026-05-07 23:07 35.65545 -120.10490 31033 ft 490 kts 140°
2026-05-07 23:08 35.59860 -120.05814 31035 ft 493 kts 147°
2026-05-07 23:08 35.54024 -120.01355 31058 ft 492 kts 147°
2026-05-07 23:09 35.48093 -119.97070 31067 ft 493 kts 154°
2026-05-07 23:09 35.41489 -119.94692 31067 ft 496 kts 172°
2026-05-07 23:10 35.34576 -119.94859 31067 ft 497 kts 190°
2026-05-07 23:10 35.28044 -119.97539 31080 ft 499 kts 207°
2026-05-07 23:11 35.22424 -120.02515 31076 ft 498 kts 225°
2026-05-07 23:11 35.17937 -120.09017 31092 ft 499 kts 232°
2026-05-07 23:11 35.15777 -120.12327 30982 ft 496 kts 232°
2026-05-07 23:12 35.13632 -120.15606 30849 ft 497 kts 232°
2026-05-07 23:12 35.11479 -120.18889 30721 ft 496 kts 232°
2026-05-07 23:12 35.09316 -120.22180 30594 ft 498 kts 232°
2026-05-07 23:12 35.07144 -120.25482 30464 ft 498 kts 232°
2026-05-07 23:13 35.04975 -120.28775 30338 ft 495 kts 232°
2026-05-07 23:13 35.02795 -120.32076 30214 ft 495 kts 232°
2026-05-07 23:13 35.00635 -120.35341 30087 ft 494 kts 232°
2026-05-07 23:13 34.98488 -120.38585 29962 ft 492 kts 232°
2026-05-07 23:14 34.96344 -120.41819 29837 ft 492 kts 232°
2026-05-07 23:14 34.94180 -120.45076 29713 ft 491 kts 232°
2026-05-07 23:14 34.92029 -120.48311 29589 ft 490 kts 232°
2026-05-07 23:14 34.89859 -120.51573 29463 ft 490 kts 232°
2026-05-07 23:15 34.87702 -120.54816 29331 ft 489 kts 232°
2026-05-07 23:15 34.85571 -120.58022 29203 ft 488 kts 232°
2026-05-07 23:15 34.83531 -120.61283 29066 ft 487 kts 238°
2026-05-07 23:15 34.81900 -120.64841 28939 ft 484 kts 248°
2026-05-07 23:16 34.80735 -120.68695 28809 ft 481 kts 256°
2026-05-07 23:16 34.80093 -120.72657 28675 ft 478 kts 265°
2026-05-07 23:16 34.79973 -120.76658 28547 ft 475 kts 274°
2026-05-07 23:16 34.80371 -120.80619 28413 ft 472 kts 283°
2026-05-07 23:17 34.81279 -120.84429 28282 ft 469 kts 292°
2026-05-07 23:17 34.82678 -120.88013 28151 ft 466 kts 302°
2026-05-07 23:17 34.84495 -120.91207 28026 ft 463 kts 311°
2026-05-07 23:17 34.86727 -120.94022 27894 ft 462 kts 320°
2026-05-07 23:18 34.89321 -120.96368 27765 ft 460 kts 329°
2026-05-07 23:18 34.92136 -120.98130 27633 ft 458 kts 339°
2026-05-07 23:18 34.95139 -120.99307 27503 ft 456 kts 348°
2026-05-07 23:18 34.98289 -121.00001 27376 ft 456 kts 352°
2026-05-07 23:19 35.01405 -121.00578 27250 ft 456 kts 352°
2026-05-07 23:19 35.04564 -121.01154 27121 ft 456 kts 352°
2026-05-07 23:19 35.07683 -121.01725 26993 ft 456 kts 352°
2026-05-07 23:19 35.10804 -121.02295 26864 ft 454 kts 352°
2026-05-07 23:20 35.13961 -121.02870 26738 ft 454 kts 352°
2026-05-07 23:20 35.17052 -121.03433 26613 ft 453 kts 352°
2026-05-07 23:20 35.20194 -121.04006 26485 ft 452 kts 352°
2026-05-07 23:20 35.23288 -121.04573 26360 ft 451 kts 352°
2026-05-07 23:21 35.26411 -121.05145 26232 ft 450 kts 352°
2026-05-07 23:21 35.29515 -121.05717 26104 ft 450 kts 352°
2026-05-07 23:21 35.32622 -121.06288 25977 ft 450 kts 352°
2026-05-07 23:21 35.35695 -121.06854 25849 ft 449 kts 352°
2026-05-07 23:22 35.38776 -121.07422 25722 ft 448 kts 352°
2026-05-07 23:22 35.41881 -121.07922 25589 ft 448 kts 357°
2026-05-07 23:22 35.45019 -121.07867 25452 ft 446 kts
2026-05-07 23:22 35.48077 -121.07169 25319 ft 445 kts 17°
2026-05-07 23:23 35.50977 -121.05855 25185 ft 445 kts 26°
2026-05-07 23:23 35.53629 -121.03979 25051 ft 445 kts 36°
2026-05-07 23:23 35.56021 -121.01538 24914 ft 443 kts 46°
2026-05-07 23:23 35.58014 -120.98668 24780 ft 441 kts 55°
2026-05-07 23:24 35.59567 -120.95444 24647 ft 441 kts 65°
2026-05-07 23:24 35.60658 -120.91891 24509 ft 439 kts 75°
2026-05-07 23:24 35.61222 -120.88200 24398 ft 439 kts 84°
2026-05-07 23:24 35.61279 -120.84450 24328 ft 442 kts 91°
2026-05-07 23:25 35.61144 -120.80695 24195 ft 439 kts 92°
2026-05-07 23:25 35.60990 -120.76945 24068 ft 437 kts 92°
2026-05-07 23:25 35.60838 -120.73247 24053 ft 436 kts 92°
2026-05-07 23:25 35.60684 -120.69511 24056 ft 438 kts 92°
2026-05-07 23:26 35.60532 -120.65744 24053 ft 438 kts 92°
2026-05-07 23:26 35.60381 -120.62066 24056 ft 437 kts 92°
2026-05-07 23:26 35.60228 -120.58321 24060 ft 437 kts 92°
2026-05-07 23:26 35.60077 -120.54594 24059 ft 437 kts 92°
2026-05-07 23:27 35.59739 -120.47154 24046 ft 446 kts 95°
2026-05-07 23:27 35.59120 -120.43312 24048 ft 468 kts 105°
2026-05-07 23:27 35.57927 -120.39548 24045 ft 482 kts 115°
2026-05-07 23:28 35.56237 -120.35950 24050 ft 481 kts 120°
2026-05-07 23:28 35.54465 -120.32444 24051 ft 482 kts 121°
2026-05-07 23:28 35.52684 -120.28937 24054 ft 481 kts 121°
2026-05-07 23:28 35.50921 -120.25471 24055 ft 481 kts 121°
2026-05-07 23:29 35.49159 -120.22008 24056 ft 481 kts 121°
2026-05-07 23:29 35.47387 -120.18530 24062 ft 481 kts 121°
2026-05-07 23:29 35.45611 -120.15050 24067 ft 481 kts 121°
2026-05-07 23:29 35.43827 -120.11556 24071 ft 481 kts 121°
2026-05-07 23:30 35.42054 -120.08086 24076 ft 481 kts 121°
2026-05-07 23:30 35.40280 -120.04617 24081 ft 481 kts 121°
2026-05-07 23:30 35.38501 -120.01144 24083 ft 481 kts 121°
2026-05-07 23:30 35.36744 -119.97715 24084 ft 482 kts 121°
2026-05-07 23:31 35.34952 -119.94222 24084 ft 482 kts 121°
2026-05-07 23:31 35.33163 -119.90739 24079 ft 482 kts 121°
2026-05-07 23:31 35.31382 -119.87274 24082 ft 482 kts 121°
2026-05-07 23:31 35.29431 -119.83911 24082 ft 483 kts 128°
2026-05-07 23:32 35.27125 -119.80981 24088 ft 484 kts 137°
2026-05-07 23:32 35.24493 -119.78369 24102 ft 485 kts 141°
2026-05-07 23:32 35.21787 -119.75817 24107 ft 485 kts 141°
2026-05-07 23:32 35.19133 -119.73328 24106 ft 485 kts 141°
2026-05-07 23:33 35.16444 -119.70812 24098 ft 479 kts 141°
2026-05-07 23:33 35.13851 -119.68390 24094 ft 460 kts 141°
2026-05-07 23:33 35.11359 -119.66065 24086 ft 443 kts 141°
2026-05-07 23:33 35.08947 -119.63817 24086 ft 427 kts 141°
2026-05-07 23:34 35.06588 -119.61620 24096 ft 424 kts 141°
2026-05-07 23:34 35.04239 -119.59433 24096 ft 425 kts 141°
2026-05-07 23:34 35.01894 -119.57252 24100 ft 425 kts 141°
2026-05-07 23:34 34.99517 -119.55044 24106 ft 425 kts 141°
2026-05-07 23:35 34.97166 -119.52861 24112 ft 425 kts 141°
2026-05-07 23:35 34.94819 -119.50684 24117 ft 425 kts 141°
2026-05-07 23:35 34.92447 -119.48487 24126 ft 425 kts 141°
2026-05-07 23:35 34.90067 -119.46301 24127 ft 424 kts 141°
2026-05-07 23:36 34.87709 -119.44191 24126 ft 413 kts 141°
2026-05-07 23:36 34.85416 -119.42145 24132 ft 407 kts 141°
2026-05-07 23:36 34.83116 -119.40091 24139 ft 406 kts 141°
2026-05-07 23:36 34.80828 -119.38048 24148 ft 407 kts 141°
2026-05-07 23:37 34.78569 -119.36031 24148 ft 405 kts 141°
2026-05-07 23:37 34.76260 -119.33971 23893 ft 399 kts 142°
2026-05-07 23:37 34.73996 -119.31957 23346 ft 398 kts 142°
2026-05-07 23:37 34.71749 -119.29992 22815 ft 397 kts 143°
2026-05-07 23:38 34.69534 -119.28059 22318 ft 394 kts 142°
2026-05-07 23:38 34.67302 -119.26113 21695 ft 390 kts 142°
2026-05-07 23:38 34.65122 -119.24211 21013 ft 386 kts 142°
2026-05-07 23:38 34.62946 -119.22329 20469 ft 384 kts 142°
2026-05-07 23:39 34.60756 -119.20442 19978 ft 382 kts 142°
2026-05-07 23:39 34.58547 -119.18540 19585 ft 399 kts 143°
2026-05-07 23:39 34.56269 -119.16581 19116 ft 402 kts 143°
2026-05-07 23:39 34.54019 -119.14612 18695 ft 397 kts 142°
2026-05-07 23:40 34.51781 -119.12623 18296 ft 392 kts 142°
2026-05-07 23:40 34.49597 -119.10683 17927 ft 389 kts 142°
2026-05-07 23:40 34.47409 -119.08744 17555 ft 388 kts 142°
2026-05-07 23:40 34.45248 -119.06831 17174 ft 387 kts 142°
2026-05-07 23:41 34.43055 -119.04900 16722 ft 385 kts 142°
2026-05-07 23:41 34.40902 -119.03033 16302 ft 381 kts 142°
2026-05-07 23:41 34.38760 -119.01183 16020 ft 377 kts 142°
2026-05-07 23:41 34.36595 -118.99307 15490 ft 383 kts 142°
2026-05-07 23:42 34.34419 -118.97425 14864 ft 385 kts 142°
2026-05-07 23:42 34.32276 -118.95525 14323 ft 383 kts 141°
2026-05-07 23:42 34.30154 -118.93590 13812 ft 381 kts 141°
2026-05-07 23:42 34.28022 -118.91647 13307 ft 378 kts 141°
2026-05-07 23:43 34.25941 -118.89754 12840 ft 375 kts 141°
2026-05-07 23:43 34.23863 -118.87854 12426 ft 370 kts 141°
2026-05-07 23:43 34.21845 -118.85995 12296 ft 356 kts 140°
2026-05-07 23:43 34.19906 -118.84211 12213 ft 343 kts 140°
2026-05-07 23:44 34.18029 -118.82484 12080 ft 331 kts 140°
2026-05-07 23:44 34.16220 -118.80823 11938 ft 321 kts 140°
2026-05-07 23:44 34.14553 -118.79085 11673 ft 314 kts 135°
2026-05-07 23:44 34.12966 -118.77293 11335 ft 312 kts 134°
2026-05-07 23:45 34.11375 -118.75520 11021 ft 309 kts 135°
2026-05-07 23:45 34.09798 -118.73789 10727 ft 305 kts 135°
2026-05-07 23:45 34.08234 -118.72087 10424 ft 302 kts 136°
2026-05-07 23:45 34.06670 -118.70387 10143 ft 299 kts 136°
2026-05-07 23:46 34.05130 -118.68716 9823 ft 297 kts 136°
2026-05-07 23:46 34.03705 -118.66934 9442 ft 294 kts 120°
2026-05-07 23:46 34.02943 -118.64687 9101 ft 288 kts 100°
2026-05-07 23:46 34.02609 -118.62324 8822 ft 284 kts 95°
2026-05-07 23:47 34.02365 -118.59975 8527 ft 281 kts 94°
2026-05-07 23:47 34.02142 -118.57633 8238 ft 279 kts 94°
2026-05-07 23:47 34.01925 -118.55344 7954 ft 278 kts 95°
2026-05-07 23:47 34.01707 -118.53028 7681 ft 272 kts 95°
2026-05-07 23:48 34.01495 -118.50773 7507 ft 266 kts 95°
2026-05-07 23:48 34.01289 -118.48581 7292 ft 261 kts 95°
2026-05-07 23:48 34.01098 -118.46472 7269 ft 247 kts 90°
2026-05-07 23:48 34.01240 -118.44460 7158 ft 236 kts 77°
2026-05-07 23:49 34.01560 -118.42526 6867 ft 235 kts 76°
2026-05-07 23:49 34.01896 -118.40598 6518 ft 238 kts 76°
2026-05-07 23:49 34.02234 -118.38648 6236 ft 237 kts 76°
2026-05-07 23:49 34.02572 -118.36684 5961 ft 236 kts 76°
2026-05-07 23:50 34.02877 -118.34769 5662 ft 236 kts 81°
2026-05-07 23:50 34.03057 -118.32780 5381 ft 236 kts 82°
2026-05-07 23:50 34.03234 -118.30833 5115 ft 234 kts 82°
2026-05-07 23:50 34.03431 -118.28881 4826 ft 234 kts 81°
2026-05-07 23:51 34.03647 -118.26938 4583 ft 232 kts 81°
2026-05-07 23:51 34.03862 -118.25002 4296 ft 232 kts 81°
2026-05-07 23:51 34.04073 -118.23090 4020 ft 231 kts 81°
2026-05-07 23:51 34.04286 -118.21151 3758 ft 230 kts 81°
2026-05-07 23:52 34.04495 -118.19248 3512 ft 228 kts 81°
2026-05-07 23:52 34.04698 -118.17389 3413 ft 217 kts 81°
2026-05-07 23:52 34.04892 -118.15618 3337 ft 206 kts 81°
2026-05-07 23:52 34.05078 -118.13918 3082 ft 205 kts 81°
2026-05-07 23:53 34.05264 -118.12229 2802 ft 205 kts 81°
2026-05-07 23:53 34.05223 -118.10522 2572 ft 199 kts 112°
2026-05-07 23:53 34.04372 -118.09202 2564 ft 203 kts 150°
2026-05-07 23:53 34.03051 -118.08757 2555 ft 198 kts 188°
2026-05-07 23:54 34.01809 -118.09352 2542 ft 191 kts 225°
2026-05-07 23:54 34.00897 -118.10501 2565 ft 193 kts 231°
2026-05-07 23:54 34.00006 -118.11722 2566 ft 190 kts 231°
2026-05-07 23:54 33.99140 -118.12917 2568 ft 190 kts 231°
2026-05-07 23:55 33.98303 -118.14156 2561 ft 189 kts 238°
2026-05-07 23:55 33.97768 -118.15582 2562 ft 188 kts 256°
2026-05-07 23:55 33.97526 -118.17138 2560 ft 186 kts 263°
2026-05-07 23:55 33.97370 -118.18700 2561 ft 188 kts 264°
2026-05-07 23:56 33.97227 -118.20248 2562 ft 188 kts 264°
2026-05-07 23:56 33.97078 -118.21814 2569 ft 185 kts 264°
2026-05-07 23:56 33.96931 -118.23315 2548 ft 171 kts 264°
2026-05-07 23:56 33.96795 -118.24690 2550 ft 164 kts 264°
2026-05-07 23:57 33.96653 -118.26114 2369 ft 169 kts 264°
2026-05-07 23:57 33.96511 -118.27498 2157 ft 167 kts 264°
2026-05-07 23:57 33.96372 -118.28875 1944 ft 166 kts 263°
2026-05-07 23:57 33.96229 -118.30269 1727 ft 164 kts 263°
2026-05-07 23:58 33.96095 -118.31583 1522 ft 153 kts 262°
2026-05-07 23:58 33.95964 -118.32863 1325 ft 153 kts 262°
2026-05-07 23:58 33.95835 -118.34117 1130 ft 151 kts 262°
2026-05-07 23:58 33.95706 -118.35366 933 ft 149 kts 262°
2026-05-07 23:59 33.95575 -118.36606 730 ft 149 kts 262°
2026-05-07 23:59 33.95454 -118.37838 530 ft 148 kts 262°
2026-05-07 23:59 33.95326 -118.39058 339 ft 146 kts 262°
2026-05-07 23:59 33.95204 -118.40275 157 ft 146 kts 262°
2026-05-08 00:00 33.95090 -118.41376 130 ft 108 kts 263°
2026-05-08 00:00 33.95021 -118.42061 127 ft 55 kts 263°
2026-05-08 00:00 33.94989 -118.42351 125 ft 27 kts 258°
2026-05-08 00:00 33.94931 -118.42561 122 ft 24 kts 240°
2026-05-08 00:01 33.94842 -118.42693 120 ft 18 kts 222°
2026-05-08 00:01 33.94737 -118.42770 118 ft 16 kts 195°
2026-05-08 00:01 33.94670 -118.42779 118 ft 7 kts 180°
2026-05-08 00:01 33.94644 -118.42768 118 ft 3 kts 138°
2026-05-08 00:02 33.94635 -118.42744 118 ft 3 kts 97°
2026-05-08 00:02 33.94636 -118.42698 118 ft 6 kts 86°
2026-05-08 00:02 33.94643 -118.42632 119 ft 9 kts 82°
2026-05-08 00:02 33.94651 -118.42550 120 ft 9 kts 83°
2026-05-08 00:03 33.94659 -118.42479 121 ft 7 kts 84°
2026-05-08 00:03 33.94665 -118.42412 122 ft 8 kts 83°
2026-05-08 00:03 33.94673 -118.42332 122 ft 10 kts 83°
2026-05-08 00:03 33.94683 -118.42242 124 ft 11 kts 83°
2026-05-08 00:04 33.94694 -118.42144 125 ft 12 kts 83°
2026-05-08 00:04 33.94704 -118.42039 126 ft 13 kts 83°
2026-05-08 00:04 33.94715 -118.41927 127 ft 14 kts 83°
2026-05-08 00:04 33.94727 -118.41805 127 ft 15 kts 83°
2026-05-08 00:05 33.94741 -118.41675 128 ft 15 kts 83°
2026-05-08 00:05 33.94754 -118.41544 129 ft 15 kts 83°
2026-05-08 00:05 33.94759 -118.41495 129 ft 0 kts 84°
2026-05-08 00:09 33.94760 -118.41489 129 ft 2 kts 84°
2026-05-08 00:09 33.94761 -118.41479 129 ft 1 kts 83°
2026-05-08 00:09 33.94765 -118.41438 130 ft 7 kts 86°
2026-05-08 00:10 33.94743 -118.41394 130 ft 6 kts 157°
2026-05-08 00:10 33.94689 -118.41385 130 ft 9 kts 173°
2026-05-08 00:10 33.94609 -118.41373 130 ft 12 kts 173°
2026-05-08 00:10 33.94515 -118.41360 130 ft 14 kts 173°
2026-05-08 00:11 33.94409 -118.41344 130 ft 15 kts 173°
2026-05-08 00:11 33.94310 -118.41330 130 ft 13 kts 173°
2026-05-08 00:11 33.94220 -118.41317 130 ft 12 kts 173°
2026-05-08 00:11 33.94138 -118.41305 131 ft 10 kts 173°
2026-05-08 00:12 33.94073 -118.41293 131 ft 7 kts 161°
2026-05-08 00:12 33.94050 -118.41251 131 ft 5 kts 99°
2026-05-08 00:12 33.94040 -118.41211 132 ft 4 kts 120°
2026-05-08 00:12 33.94025 -118.41193 132 ft 2 kts 149°
2026-05-08 00:13 33.94009 -118.41186 132 ft 3 kts 169°
2026-05-08 00:13 33.93979 -118.41181 132 ft 5 kts 173°
2026-05-08 00:13 33.93951 -118.41173 132 ft 3 kts 145°
2026-05-08 00:13 33.93938 -118.41151 133 ft 3 kts 108°
2026-05-08 00:14 33.93938 -118.41119 133 ft 4 kts 83°
2026-05-08 00:14 33.93941 -118.41086 133 ft 3 kts 83°
2026-05-08 00:14 33.93943 -118.41067 133 ft 0 kts 83°